Time,TemperatureF,DewpointF,PressureIn,WindDirection,WindDirectionDegrees,WindSpeedMPH,WindSpeedGustMPH,Humidity,HourlyPrecipIn,Conditions,Clouds,dailyrainin,SoftwareType,DateUTC
2013-11-13 00:00:00,18.0,6.8,29.32,West,270,2.3,2.3,61,0.00,CLR,,0.00,WeatherDisplay:10.37,2013-11-13 06:00:00,
2013-11-13 00:01:00,18.0,6.8,29.32,SW,225,2.0,2.0,61,0.00,CLR,,0.00,WeatherDisplay:10.37,2013-11-13 06:01:00,
2013-11-13 00:02:00,18.0,6.8,29.32,SW,225,2.3,2.3,61,0.00,CLR,,0.00,WeatherDisplay:10.37,2013-11-13 06:02:00,
2013-11-13 00:04:00,18.0,6.8,29.32,NNW,338,1.2,1.2,61,0.00,CLR,,0.00,WeatherDisplay:10.37,2013-11-13 06:04:00,
2013-11-13 00:05:00,18.0,6.8,29.32,WSW,248,2.0,2.2,61,0.00,CLR,,0.00,WeatherDisplay:10.37,2013-11-13 06:05:00,
2013-11-13 00:06:00,18.1,6.9,29.32,SSW,202,4.6,4.6,61,0.00,CLR,,0.00,WeatherDisplay:10.37,2013-11-13 06:06:00,
2013-11-13 00:07:00,18.1,7.3,29.32,SSW,202,4.6,4.6,62,0.00,CLR,,0.00,WeatherDisplay:10.37,2013-11-13 06:07:00,
2013-11-13 00:08:00,18.1,7.3,29.32,SW,225,4.6,4.6,62,0.00,CLR,,0.00,WeatherDisplay:10.37,2013-11-13 06:08:00,
2013-11-13 00:09:00,18.1,7.3,29.32,WSW,248,3.5,3.5,62,0.00,CLR,,0.00,WeatherDisplay:10.37,2013-11-13 06:09:00,
2013-11-13 00:10:00,18.1,7.3,29.32,West,270,3.5,3.5,62,0.00,CLR,,0.00,WeatherDisplay:10.37,2013-11-13 06:10:00,
2013-11-13 00:11:00,18.1,7.3,29.32,WSW,248,3.5,3.5,62,0.00,CLR,,0.00,WeatherDisplay:10.37,2013-11-13 06:11:00,
2013-11-13 00:12:00,18.1,7.3,29.32,SW,225,4.6,4.6,62,0.00,CLR,,0.00,WeatherDisplay:10.37,2013-11-13 06:12:00,
2013-11-13 00:13:00,18.3,7.8,29.32,WNW,292,4.6,4.6,63,0.00,CLR,,0.00,WeatherDisplay:10.37,2013-11-13 06:13:00,
2013-11-13 00:14:00,18.3,7.5,29.32,WSW,248,3.5,3.5,62,0.00,CLR,,0.00,WeatherDisplay:10.37,2013-11-13 06:14:00,
2013-11-13 00:16:00,18.1,7.3,29.32,West,270,2.3,2.3,62,0.00,CLR,,0.00,WeatherDisplay:10.37,2013-11-13 06:16:00,
2013-11-13 00:17:00,18.1,7.3,29.32,WSW,248,1.2,1.2,62,0.00,CLR,,0.00,WeatherDisplay:10.37,2013-11-13 06:17:00,
2013-11-13 00:18:00,18.1,7.3,29.32,SSW,202,3.5,3.5,62,0.00,CLR,,0.00,WeatherDisplay:10.37,2013-11-13 06:18:00,
2013-11-13 00:19:00,18.1,7.3,29.32,West,270,2.3,2.3,62,0.00,CLR,,0.00,WeatherDisplay:10.37,2013-11-13 06:19:00,
2013-11-13 00:21:00,18.1,7.3,29.32,WSW,248,2.9,2.9,62,0.00,CLR,,0.00,WeatherDisplay:10.37,2013-11-13 06:21:00,
2013-11-13 00:22:00,18.1,7.3,29.32,SSW,202,3.5,3.5,62,0.00,CLR,,0.00,WeatherDisplay:10.37,2013-11-13 06:22:00,
2013-11-13 00:23:00,18.1,7.3,29.32,SW,225,2.4,2.4,62,0.00,CLR,,0.00,WeatherDisplay:10.37,2013-11-13 06:23:00,
2013-11-13 00:25:00,18.1,7.3,29.32,West,270,3.5,3.5,62,0.00,CLR,,0.00,WeatherDisplay:10.37,2013-11-13 06:25:00,
2013-11-13 00:26:00,18.1,7.6,29.32,SSW,202,3.5,3.5,63,0.00,CLR,,0.00,WeatherDisplay:10.37,2013-11-13 06:26:00,
2013-11-13 00:27:00,18.1,7.6,29.32,NW,315,1.6,1.6,63,0.00,CLR,,0.00,WeatherDisplay:10.37,2013-11-13 06:27:00,
2013-11-13 00:28:00,18.1,7.6,29.32,South,180,1.2,1.2,63,0.00,CLR,,0.00,WeatherDisplay:10.37,2013-11-13 06:28:00,
2013-11-13 00:30:00,18.1,7.6,29.32,WSW,246,1.0,3.0,63,0.00,CLR,,0.00,WeatherDisplay:10.37,2013-11-13 06:30:00,
2013-11-13 00:31:00,18.0,7.1,29.32,SSW,202,4.6,4.6,62,0.00,CLR,,0.00,WeatherDisplay:10.37,2013-11-13 06:31:00,
2013-11-13 00:32:00,18.0,7.1,29.32,WNW,292,4.6,4.6,62,0.00,CLR,,0.00,WeatherDisplay:10.37,2013-11-13 06:32:00,
2013-11-13 00:33:00,18.1,7.6,29.32,WNW,292,3.5,3.5,63,0.00,CLR,,0.00,WeatherDisplay:10.37,2013-11-13 06:33:00,
2013-11-13 00:35:00,18.1,7.6,29.32,NNW,338,1.4,1.4,63,0.00,CLR,,0.00,WeatherDisplay:10.37,2013-11-13 06:35:00,
2013-11-13 00:36:00,18.0,7.5,29.32,WSW,248,1.6,1.6,63,0.00,CLR,,0.00,WeatherDisplay:10.37,2013-11-13 06:36:00,
2013-11-13 00:37:00,18.0,7.5,29.32,SSE,158,1.2,1.4,63,0.00,CLR,,0.00,WeatherDisplay:10.37,2013-11-13 06:37:00,
2013-11-13 00:38:00,18.0,7.1,29.32,SSW,202,1.4,0.0,62,0.00,CLR,,0.00,WeatherDisplay:10.37,2013-11-13 06:38:00,
2013-11-13 00:40:00,17.8,7.0,29.32,West,270,2.4,2.4,62,0.00,CLR,,0.00,WeatherDisplay:10.37,2013-11-13 06:40:00,
2013-11-13 00:41:00,17.8,7.0,29.32,SW,225,3.5,3.5,62,0.00,CLR,,0.00,WeatherDisplay:10.37,2013-11-13 06:41:00,
2013-11-13 00:42:00,17.8,7.0,29.32,SSW,202,3.5,3.5,62,0.00,CLR,,0.00,WeatherDisplay:10.37,2013-11-13 06:42:00,
2013-11-13 00:43:00,17.8,7.0,29.32,WSW,248,1.2,0.0,62,0.00,CLR,,0.00,WeatherDisplay:10.37,2013-11-13 06:43:00,
2013-11-13 00:44:00,17.8,7.0,29.32,WSW,248,2.4,0.0,62,0.00,CLR,,0.00,WeatherDisplay:10.37,2013-11-13 06:44:00,
2013-11-13 00:46:00,17.8,7.0,29.32,West,270,0.0,0.0,62,0.00,CLR,,0.00,WeatherDisplay:10.37,2013-11-13 06:46:00,
2013-11-13 00:47:00,17.8,7.0,29.32,West,270,1.2,0.0,62,0.00,CLR,,0.00,WeatherDisplay:10.37,2013-11-13 06:47:00,
2013-11-13 00:49:00,17.6,7.1,29.32,West,270,0.0,0.0,63,0.00,CLR,,0.00,WeatherDisplay:10.37,2013-11-13 06:49:00,
2013-11-13 00:51:00,17.4,6.6,29.32,West,270,0.0,0.0,62,0.00,CLR,,0.00,WeatherDisplay:10.37,2013-11-13 06:51:00,
2013-11-13 00:52:00,17.4,6.6,29.32,WSW,248,0.0,0.0,62,0.00,CLR,,0.00,WeatherDisplay:10.37,2013-11-13 06:52:00,
2013-11-13 00:54:00,17.4,6.6,29.32,NW,315,3.5,3.5,62,0.00,CLR,,0.00,WeatherDisplay:10.37,2013-11-13 06:54:00,
2013-11-13 00:55:00,17.4,6.6,29.32,WSW,248,1.4,1.4,62,0.00,CLR,,0.00,WeatherDisplay:10.37,2013-11-13 06:55:00,
2013-11-13 00:56:00,17.4,6.6,29.32,South,180,2.3,2.3,62,0.00,CLR,,0.00,WeatherDisplay:10.37,2013-11-13 06:56:00,
2013-11-13 00:57:00,17.4,7.0,29.32,WSW,248,1.2,1.2,63,0.00,CLR,,0.00,WeatherDisplay:10.37,2013-11-13 06:57:00,
2013-11-13 00:59:00,17.4,6.6,29.32,WSW,248,1.2,0.0,62,0.00,CLR,,0.00,WeatherDisplay:10.37,2013-11-13 06:59:00,
2013-11-13 01:00:00,17.2,6.8,29.32,South,180,0.0,0.0,63,0.00,CLR,,0.00,WeatherDisplay:10.37,2013-11-13 07:00:00,
2013-11-13 01:01:00,17.2,6.8,29.32,WNW,292,2.6,2.6,63,0.00,CLR,,0.00,WeatherDisplay:10.37,2013-11-13 07:01:00,
2013-11-13 01:02:00,17.4,7.0,29.32,West,270,2.3,2.4,63,0.00,CLR,,0.00,WeatherDisplay:10.37,2013-11-13 07:02:00,
2013-11-13 01:03:00,17.4,7.0,29.32,SSW,202,3.5,3.5,63,0.00,CLR,,0.00,WeatherDisplay:10.37,2013-11-13 07:03:00,
2013-11-13 01:04:00,17.4,7.3,29.32,WSW,248,3.5,3.5,64,0.00,CLR,,0.00,WeatherDisplay:10.37,2013-11-13 07:04:00,
2013-11-13 01:06:00,17.6,7.5,29.32,WNW,292,2.3,2.3,64,0.00,CLR,,0.00,WeatherDisplay:10.37,2013-11-13 07:06:00,
2013-11-13 01:08:00,17.6,7.5,29.32,SSW,202,2.3,2.3,64,0.00,CLR,,0.00,WeatherDisplay:10.37,2013-11-13 07:08:00,
2013-11-13 01:10:00,17.6,7.5,29.32,West,270,1.2,1.4,64,0.00,CLR,,0.00,WeatherDisplay:10.37,2013-11-13 07:10:00,
2013-11-13 01:11:00,17.6,7.5,29.32,SSW,202,3.5,3.5,64,0.00,CLR,,0.00,WeatherDisplay:10.37,2013-11-13 07:11:00,
2013-11-13 01:13:00,17.6,7.8,29.32,SSW,202,1.6,1.6,65,0.00,CLR,,0.00,WeatherDisplay:10.37,2013-11-13 07:13:00,
2013-11-13 01:15:00,17.6,7.8,29.32,SSW,202,2.3,2.3,65,0.00,CLR,,0.00,WeatherDisplay:10.37,2013-11-13 07:15:00,
2013-11-13 01:16:00,17.6,7.8,29.32,SSW,202,4.7,0.0,65,0.00,CLR,,0.00,WeatherDisplay:10.37,2013-11-13 07:16:00,
2013-11-13 01:17:00,17.6,7.8,29.32,NW,315,4.6,4.6,65,0.00,CLR,,0.00,WeatherDisplay:10.37,2013-11-13 07:17:00,
2013-11-13 01:18:00,17.6,7.8,29.32,SW,225,3.5,3.5,65,0.00,CLR,,0.00,WeatherDisplay:10.37,2013-11-13 07:18:00,
2013-11-13 01:20:00,17.6,7.8,29.32,SSW,202,2.3,2.3,65,0.00,CLR,,0.00,WeatherDisplay:10.37,2013-11-13 07:20:00,
2013-11-13 01:21:00,17.6,7.8,29.32,SW,225,3.5,3.5,65,0.00,CLR,,0.00,WeatherDisplay:10.37,2013-11-13 07:21:00,
2013-11-13 01:22:00,17.6,7.8,29.32,WSW,248,3.5,3.5,65,0.00,CLR,,0.00,WeatherDisplay:10.37,2013-11-13 07:22:00,
2013-11-13 01:23:00,17.6,7.8,29.32,NW,315,2.6,2.6,65,0.00,CLR,,0.00,WeatherDisplay:10.37,2013-11-13 07:23:00,
2013-11-13 01:25:00,17.6,8.2,29.32,WSW,248,2.4,2.4,66,0.00,CLR,,0.00,WeatherDisplay:10.37,2013-11-13 07:25:00,
2013-11-13 01:26:00,17.6,8.2,29.32,South,180,3.5,3.5,66,0.00,CLR,,0.00,WeatherDisplay:10.37,2013-11-13 07:26:00,
2013-11-13 01:27:00,17.6,8.2,29.32,SW,225,3.5,3.5,66,0.00,CLR,,0.00,WeatherDisplay:10.37,2013-11-13 07:27:00,
2013-11-13 01:29:00,17.6,7.8,29.32,SSW,202,2.3,2.3,65,0.00,CLR,,0.00,WeatherDisplay:10.37,2013-11-13 07:29:00,
2013-11-13 01:31:00,17.6,7.8,29.32,WSW,248,2.3,2.3,65,0.00,CLR,,0.00,WeatherDisplay:10.37,2013-11-13 07:31:00,
2013-11-13 01:32:00,17.6,7.8,29.32,WSW,248,2.3,2.3,65,0.00,CLR,,0.00,WeatherDisplay:10.37,2013-11-13 07:32:00,
2013-11-13 01:33:00,17.6,7.8,29.32,WSW,248,2.3,2.3,65,0.00,CLR,,0.00,WeatherDisplay:10.37,2013-11-13 07:33:00,
2013-11-13 01:34:00,17.6,7.8,29.32,WSW,248,2.3,2.3,65,0.00,CLR,,0.00,WeatherDisplay:10.37,2013-11-13 07:34:00,
2013-11-13 01:36:00,17.4,7.7,29.32,SSW,202,2.3,2.3,65,0.00,CLR,,0.00,WeatherDisplay:10.37,2013-11-13 07:36:00,
2013-11-13 01:37:00,17.4,7.7,29.32,SSW,202,2.3,2.3,65,0.00,CLR,,0.00,WeatherDisplay:10.37,2013-11-13 07:37:00,
2013-11-13 01:38:00,17.4,7.7,29.32,WSW,248,2.3,2.3,65,0.00,CLR,,0.00,WeatherDisplay:10.37,2013-11-13 07:38:00,
2013-11-13 01:39:00,17.4,7.7,29.32,SW,225,1.2,1.2,65,0.00,CLR,,0.00,WeatherDisplay:10.37,2013-11-13 07:39:00,
2013-11-13 01:41:00,17.4,7.7,29.32,SW,225,1.2,1.4,65,0.00,CLR,,0.00,WeatherDisplay:10.37,2013-11-13 07:41:00,
2013-11-13 01:42:00,17.4,7.7,29.32,SW,225,1.2,1.4,65,0.00,CLR,,0.00,WeatherDisplay:10.37,2013-11-13 07:42:00,
2013-11-13 01:43:00,17.1,7.3,29.32,SSW,202,2.3,2.3,65,0.00,CLR,,0.00,WeatherDisplay:10.37,2013-11-13 07:43:00,
2013-11-13 01:44:00,17.1,7.3,29.32,SSW,202,1.2,1.2,65,0.00,CLR,,0.00,WeatherDisplay:10.37,2013-11-13 07:44:00,
2013-11-13 01:45:00,17.1,7.3,29.32,South,180,2.3,2.3,65,0.00,CLR,,0.00,WeatherDisplay:10.37,2013-11-13 07:45:00,
2013-11-13 01:46:00,17.1,7.3,29.32,South,180,3.5,3.5,65,0.00,CLR,,0.00,WeatherDisplay:10.37,2013-11-13 07:46:00,
2013-11-13 01:47:00,17.1,7.3,29.32,SW,225,2.3,2.3,65,0.00,CLR,,0.00,WeatherDisplay:10.37,2013-11-13 07:47:00,
2013-11-13 01:49:00,17.1,7.3,29.32,WSW,248,2.3,2.3,65,0.00,CLR,,0.00,WeatherDisplay:10.37,2013-11-13 07:49:00,
2013-11-13 01:50:00,16.9,7.1,29.32,SSW,202,2.3,2.3,65,0.00,CLR,,0.00,WeatherDisplay:10.37,2013-11-13 07:50:00,
2013-11-13 01:51:00,16.9,7.1,29.32,West,270,4.0,4.0,65,0.00,CLR,,0.00,WeatherDisplay:10.37,2013-11-13 07:51:00,
2013-11-13 01:53:00,17.1,7.6,29.32,South,180,3.5,3.5,66,0.00,CLR,,0.00,WeatherDisplay:10.37,2013-11-13 07:53:00,
2013-11-13 01:54:00,17.1,7.6,29.32,SSW,202,3.8,3.8,66,0.00,CLR,,0.00,WeatherDisplay:10.37,2013-11-13 07:54:00,
2013-11-13 01:55:00,17.1,8.0,29.32,SSW,202,3.5,3.5,67,0.00,CLR,,0.00,WeatherDisplay:10.37,2013-11-13 07:55:00,
2013-11-13 01:56:00,17.1,8.0,29.32,SE,135,2.3,2.3,67,0.00,CLR,,0.00,WeatherDisplay:10.37,2013-11-13 07:56:00,
2013-11-13 01:58:00,16.9,7.8,29.32,SSW,202,1.2,1.2,67,0.00,CLR,,0.00,WeatherDisplay:10.37,2013-11-13 07:58:00,
2013-11-13 01:59:00,16.9,7.8,29.32,WSW,248,1.2,1.2,67,0.00,CLR,,0.00,WeatherDisplay:10.37,2013-11-13 07:59:00,
2013-11-13 02:00:00,16.9,7.8,29.32,SW,225,1.4,0.0,67,0.00,CLR,,0.00,WeatherDisplay:10.37,2013-11-13 08:00:00,
2013-11-13 02:01:00,16.9,7.8,29.32,WSW,248,1.2,0.0,67,0.00,CLR,,0.00,WeatherDisplay:10.37,2013-11-13 08:01:00,
2013-11-13 02:03:00,16.9,7.5,29.32,SSW,202,3.5,3.5,66,0.00,CLR,,0.00,WeatherDisplay:10.37,2013-11-13 08:03:00,
2013-11-13 02:05:00,16.9,7.8,29.32,WSW,248,3.8,3.8,67,0.00,CLR,,0.00,WeatherDisplay:10.37,2013-11-13 08:05:00,
2013-11-13 02:07:00,17.1,8.3,29.32,West,270,4.6,4.6,68,0.00,CLR,,0.00,WeatherDisplay:10.37,2013-11-13 08:07:00,
2013-11-13 02:10:00,17.1,8.3,29.29,SSW,202,2.3,2.3,68,0.00,CLR,,0.00,WeatherDisplay:10.37,2013-11-13 08:10:00,
2013-11-13 02:11:00,17.1,8.3,29.29,SSW,202,2.3,2.3,68,0.00,CLR,,0.00,WeatherDisplay:10.37,2013-11-13 08:11:00,
2013-11-13 02:12:00,17.1,8.6,29.29,South,180,3.5,3.5,69,0.00,CLR,,0.00,WeatherDisplay:10.37,2013-11-13 08:12:00,
2013-11-13 02:13:00,17.1,8.6,29.29,WSW,248,3.5,3.5,69,0.00,CLR,,0.00,WeatherDisplay:10.37,2013-11-13 08:13:00,
2013-11-13 02:15:00,17.1,8.3,29.29,SSW,202,2.9,2.9,68,0.00,CLR,,0.00,WeatherDisplay:10.37,2013-11-13 08:15:00,
2013-11-13 02:16:00,17.1,8.3,29.29,West,270,2.3,2.3,68,0.00,CLR,,0.00,WeatherDisplay:10.37,2013-11-13 08:16:00,
2013-11-13 02:17:00,17.1,8.3,29.29,SSW,202,2.3,2.3,68,0.00,CLR,,0.00,WeatherDisplay:10.37,2013-11-13 08:17:00,
2013-11-13 02:18:00,16.9,8.1,29.29,SSW,202,2.3,2.3,68,0.00,CLR,,0.00,WeatherDisplay:10.37,2013-11-13 08:18:00,
2013-11-13 02:20:00,16.9,8.1,29.29,SW,225,1.4,1.4,68,0.00,CLR,,0.00,WeatherDisplay:10.37,2013-11-13 08:20:00,
2013-11-13 02:21:00,16.9,8.1,29.29,SW,225,1.4,1.4,68,0.00,CLR,,0.00,WeatherDisplay:10.37,2013-11-13 08:21:00,
2013-11-13 02:22:00,16.9,8.1,29.29,SW,225,1.2,1.2,68,0.00,CLR,,0.00,WeatherDisplay:10.37,2013-11-13 08:22:00,
2013-11-13 02:24:00,16.9,8.1,29.29,South,180,1.2,1.2,68,0.00,CLR,,0.00,WeatherDisplay:10.37,2013-11-13 08:24:00,
2013-11-13 02:26:00,16.9,8.1,29.29,South,180,1.4,1.4,68,0.00,CLR,,0.00,WeatherDisplay:10.37,2013-11-13 08:26:00,
2013-11-13 02:27:00,16.9,7.8,29.29,South,180,2.3,2.3,67,0.00,CLR,,0.00,WeatherDisplay:10.37,2013-11-13 08:27:00,
2013-11-13 02:29:00,17.1,8.3,29.29,West,270,3.5,3.5,68,0.00,CLR,,0.00,WeatherDisplay:10.37,2013-11-13 08:29:00,
2013-11-13 02:31:00,17.2,8.5,29.29,WSW,248,3.5,3.5,68,0.00,CLR,,0.00,WeatherDisplay:10.37,2013-11-13 08:31:00,
2013-11-13 02:32:00,17.4,9.0,29.29,SSW,202,2.3,2.3,69,0.00,CLR,,0.00,WeatherDisplay:10.37,2013-11-13 08:32:00,
2013-11-13 02:34:00,17.6,9.2,29.29,SSW,202,2.4,2.4,69,0.00,CLR,,0.00,WeatherDisplay:10.37,2013-11-13 08:34:00,
2013-11-13 02:36:00,17.6,9.2,29.29,WSW,248,3.5,3.5,69,0.00,CLR,,0.00,WeatherDisplay:10.37,2013-11-13 08:36:00,
2013-11-13 02:37:00,17.6,9.2,29.29,West,270,3.5,3.5,69,0.00,CLR,,0.00,WeatherDisplay:10.37,2013-11-13 08:37:00,
2013-11-13 02:40:00,17.6,9.2,29.26,SW,225,2.3,2.3,69,0.00,CLR,,0.00,WeatherDisplay:10.37,2013-11-13 08:40:00,
2013-11-13 02:41:00,17.8,9.0,29.26,West,270,3.1,3.1,68,0.00,CLR,,0.00,WeatherDisplay:10.37,2013-11-13 08:41:00,
2013-11-13 02:42:00,17.8,9.0,29.26,WSW,248,3.5,3.5,68,0.00,CLR,,0.00,WeatherDisplay:10.37,2013-11-13 08:42:00,
2013-11-13 02:45:00,18.1,9.3,29.26,SSW,202,3.5,3.5,68,0.00,CLR,,0.00,WeatherDisplay:10.37,2013-11-13 08:45:00,
2013-11-13 02:46:00,18.3,9.5,29.26,WSW,248,4.6,4.6,68,0.00,CLR,,0.00,WeatherDisplay:10.37,2013-11-13 08:46:00,
2013-11-13 02:47:00,18.3,9.5,29.26,WSW,248,4.6,4.6,68,0.00,CLR,,0.00,WeatherDisplay:10.37,2013-11-13 08:47:00,
2013-11-13 02:48:00,18.3,9.5,29.26,SSW,202,5.8,5.8,68,0.00,CLR,,0.00,WeatherDisplay:10.37,2013-11-13 08:48:00,
2013-11-13 02:50:00,18.5,9.7,29.26,South,180,2.9,2.9,68,0.00,CLR,,0.00,WeatherDisplay:10.37,2013-11-13 08:50:00,
2013-11-13 02:51:00,18.5,9.4,29.26,SSW,202,4.9,4.9,67,0.00,CLR,,0.00,WeatherDisplay:10.37,2013-11-13 08:51:00,
2013-11-13 02:52:00,18.7,9.5,29.26,WSW,248,4.6,4.6,67,0.00,CLR,,0.00,WeatherDisplay:10.37,2013-11-13 08:52:00,
2013-11-13 02:53:00,18.7,9.5,29.26,SE,135,9.2,9.2,67,0.00,CLR,,0.00,WeatherDisplay:10.37,2013-11-13 08:53:00,
2013-11-13 02:55:00,18.7,9.5,29.26,SSE,158,4.6,4.6,67,0.00,CLR,,0.00,WeatherDisplay:10.37,2013-11-13 08:55:00,
2013-11-13 02:56:00,18.7,9.2,29.26,NW,315,4.6,4.6,66,0.00,CLR,,0.00,WeatherDisplay:10.37,2013-11-13 08:56:00,
2013-11-13 02:57:00,18.7,9.2,29.26,WSW,248,3.5,3.5,66,0.00,CLR,,0.00,WeatherDisplay:10.37,2013-11-13 08:57:00,
2013-11-13 02:58:00,18.7,9.2,29.26,WSW,248,2.4,2.4,66,0.00,CLR,,0.00,WeatherDisplay:10.37,2013-11-13 08:58:00,
2013-11-13 03:02:00,18.7,9.2,29.26,SSW,202,3.5,3.5,66,0.00,CLR,,0.00,WeatherDisplay:10.37,2013-11-13 09:02:00,
2013-11-13 03:03:00,18.7,9.2,29.26,South,180,3.5,3.5,66,0.00,CLR,,0.00,WeatherDisplay:10.37,2013-11-13 09:03:00,
2013-11-13 03:04:00,18.7,9.2,29.26,WSW,248,4.6,4.6,66,0.00,CLR,,0.00,WeatherDisplay:10.37,2013-11-13 09:04:00,
2013-11-13 03:07:00,18.5,8.7,29.26,SSW,202,3.5,3.5,65,0.00,CLR,,0.00,WeatherDisplay:10.37,2013-11-13 09:07:00,
2013-11-13 03:08:00,18.5,8.7,29.26,WSW,248,2.3,2.4,65,0.00,CLR,,0.00,WeatherDisplay:10.37,2013-11-13 09:08:00,
2013-11-13 03:09:00,18.5,8.7,29.26,WSW,248,2.9,2.9,65,0.00,CLR,,0.00,WeatherDisplay:10.37,2013-11-13 09:09:00,
2013-11-13 03:13:00,18.5,8.7,29.26,SW,225,4.6,4.6,65,0.00,CLR,,0.00,WeatherDisplay:10.37,2013-11-13 09:13:00,
2013-11-13 03:14:00,18.5,8.7,29.26,WSW,248,4.6,4.6,65,0.00,CLR,,0.00,WeatherDisplay:10.37,2013-11-13 09:14:00,
2013-11-13 03:15:00,18.5,8.7,29.26,South,180,2.9,2.9,65,0.00,CLR,,0.00,WeatherDisplay:10.37,2013-11-13 09:15:00,
2013-11-13 03:16:00,18.5,8.7,29.26,SSW,202,2.3,2.3,65,0.00,CLR,,0.00,WeatherDisplay:10.37,2013-11-13 09:16:00,
2013-11-13 03:18:00,18.5,8.7,29.26,WSW,248,3.5,3.5,65,0.00,CLR,,0.00,WeatherDisplay:10.37,2013-11-13 09:18:00,
2013-11-13 03:19:00,18.3,8.5,29.26,SW,225,2.3,2.3,65,0.00,CLR,,0.00,WeatherDisplay:10.37,2013-11-13 09:19:00,
2013-11-13 03:20:00,18.3,8.2,29.26,SW,225,2.6,2.6,64,0.00,CLR,,0.00,WeatherDisplay:10.37,2013-11-13 09:20:00,
2013-11-13 03:21:00,18.3,8.2,29.26,SSW,202,2.4,2.4,64,0.00,CLR,,0.00,WeatherDisplay:10.37,2013-11-13 09:21:00,
2013-11-13 03:23:00,18.3,8.2,29.26,South,180,2.3,2.3,64,0.00,CLR,,0.00,WeatherDisplay:10.37,2013-11-13 09:23:00,
2013-11-13 03:24:00,18.3,8.2,29.26,WSW,248,2.3,2.3,64,0.00,CLR,,0.00,WeatherDisplay:10.37,2013-11-13 09:24:00,
2013-11-13 03:26:00,18.3,8.2,29.29,West,270,2.3,2.3,64,0.00,CLR,,0.00,WeatherDisplay:10.37,2013-11-13 09:26:00,
2013-11-13 03:27:00,18.1,8.0,29.29,SSE,158,3.5,3.5,64,0.00,CLR,,0.00,WeatherDisplay:10.37,2013-11-13 09:27:00,
2013-11-13 03:28:00,18.1,8.0,29.29,North,0,3.5,3.5,64,0.00,CLR,,0.00,WeatherDisplay:10.37,2013-11-13 09:28:00,
2013-11-13 03:29:00,18.1,8.0,29.29,SW,225,5.8,5.8,64,0.00,CLR,,0.00,WeatherDisplay:10.37,2013-11-13 09:29:00,
2013-11-13 03:31:00,18.1,8.0,29.29,WSW,248,5.8,5.8,64,0.00,CLR,,0.00,WeatherDisplay:10.37,2013-11-13 09:31:00,
2013-11-13 03:32:00,18.1,8.0,29.29,WSW,248,5.8,5.8,64,0.00,CLR,,0.00,WeatherDisplay:10.37,2013-11-13 09:32:00,
2013-11-13 03:33:00,18.1,8.0,29.29,WSW,248,5.8,5.8,64,0.00,CLR,,0.00,WeatherDisplay:10.37,2013-11-13 09:33:00,
2013-11-13 03:34:00,18.1,8.0,29.29,WSW,248,5.8,5.8,64,0.00,CLR,,0.00,WeatherDisplay:10.37,2013-11-13 09:34:00,
2013-11-13 03:36:00,18.1,8.0,29.29,WSW,248,5.8,5.8,64,0.00,CLR,,0.00,WeatherDisplay:10.37,2013-11-13 09:36:00,
2013-11-13 03:37:00,18.1,8.3,29.29,West,270,2.3,2.3,65,0.00,CLR,,0.00,WeatherDisplay:10.37,2013-11-13 09:37:00,
2013-11-13 03:38:00,18.0,8.2,29.29,SW,225,2.3,2.3,65,0.00,CLR,,0.00,WeatherDisplay:10.37,2013-11-13 09:38:00,
2013-11-13 03:39:00,18.0,7.8,29.29,SW,225,2.3,2.3,64,0.00,CLR,,0.00,WeatherDisplay:10.37,2013-11-13 09:39:00,
2013-11-13 03:40:00,18.0,7.8,29.26,WSW,248,2.3,0.0,64,0.00,CLR,,0.00,WeatherDisplay:10.37,2013-11-13 09:40:00,
2013-11-13 03:41:00,17.8,7.7,29.26,SSW,202,1.6,1.6,64,0.00,CLR,,0.00,WeatherDisplay:10.37,2013-11-13 09:41:00,
2013-11-13 03:42:00,17.8,7.7,29.26,SW,225,2.3,2.3,64,0.00,CLR,,0.00,WeatherDisplay:10.37,2013-11-13 09:42:00,
2013-11-13 03:44:00,17.8,7.7,29.26,SSW,202,2.0,2.0,64,0.00,CLR,,0.00,WeatherDisplay:10.37,2013-11-13 09:44:00,
2013-11-13 03:45:00,17.8,7.7,29.26,SSW,202,2.3,2.3,64,0.00,CLR,,0.00,WeatherDisplay:10.37,2013-11-13 09:45:00,
2013-11-13 03:46:00,17.8,7.7,29.26,SSW,202,2.0,2.0,64,0.00,CLR,,0.00,WeatherDisplay:10.37,2013-11-13 09:46:00,
2013-11-13 03:47:00,17.8,7.7,29.26,SSW,202,2.4,2.4,64,0.00,CLR,,0.00,WeatherDisplay:10.37,2013-11-13 09:47:00,
2013-11-13 03:49:00,18.0,8.2,29.26,SSW,202,2.3,2.3,65,0.00,CLR,,0.00,WeatherDisplay:10.37,2013-11-13 09:49:00,
2013-11-13 03:50:00,18.0,8.2,29.26,WSW,248,2.3,2.3,65,0.00,CLR,,0.00,WeatherDisplay:10.37,2013-11-13 09:50:00,
2013-11-13 03:51:00,18.0,8.2,29.26,SW,225,2.3,2.3,65,0.00,CLR,,0.00,WeatherDisplay:10.37,2013-11-13 09:51:00,
2013-11-13 03:52:00,18.1,8.3,29.26,SSW,202,4.6,4.6,65,0.00,CLR,,0.00,WeatherDisplay:10.37,2013-11-13 09:52:00,
2013-11-13 03:54:00,18.1,8.3,29.26,South,180,1.2,1.4,65,0.00,CLR,,0.00,WeatherDisplay:10.37,2013-11-13 09:54:00,
2013-11-13 03:55:00,18.1,8.3,29.24,SW,225,2.3,2.3,65,0.00,CLR,,0.00,WeatherDisplay:10.37,2013-11-13 09:55:00,
2013-11-13 03:56:00,18.1,8.3,29.24,East,90,2.3,2.3,65,0.00,CLR,,0.00,WeatherDisplay:10.37,2013-11-13 09:56:00,
2013-11-13 03:57:00,18.1,8.3,29.24,WSW,248,2.3,2.3,65,0.00,CLR,,0.00,WeatherDisplay:10.37,2013-11-13 09:57:00,
2013-11-13 03:58:00,18.1,8.3,29.24,SSW,202,3.1,3.1,65,0.00,CLR,,0.00,WeatherDisplay:10.37,2013-11-13 09:58:00,
2013-11-13 03:59:00,18.3,8.5,29.24,WSW,248,3.5,3.5,65,0.00,CLR,,0.00,WeatherDisplay:10.37,2013-11-13 09:59:00,
2013-11-13 04:00:00,18.3,8.5,29.24,SW,225,2.6,2.6,65,0.00,CLR,,0.00,WeatherDisplay:10.37,2013-11-13 10:00:00,
2013-11-13 04:01:00,18.3,8.5,29.24,South,180,3.6,3.6,65,0.00,CLR,,0.00,WeatherDisplay:10.37,2013-11-13 10:01:00,
2013-11-13 04:02:00,18.9,8.7,29.24,West,270,4.6,4.6,64,0.00,CLR,,0.00,WeatherDisplay:10.37,2013-11-13 10:02:00,
2013-11-13 04:03:00,18.7,8.5,29.24,WNW,292,2.3,0.0,64,0.00,CLR,,0.00,WeatherDisplay:10.37,2013-11-13 10:03:00,
2013-11-13 04:04:00,18.5,8.3,29.24,South,180,1.2,1.2,64,0.00,CLR,,0.00,WeatherDisplay:10.37,2013-11-13 10:04:00,
2013-11-13 04:05:00,18.5,8.3,29.24,SSW,202,3.1,3.1,64,0.00,CLR,,0.00,WeatherDisplay:10.37,2013-11-13 10:05:00,
2013-11-13 04:06:00,18.7,8.5,29.24,West,270,3.5,3.5,64,0.00,CLR,,0.00,WeatherDisplay:10.37,2013-11-13 10:06:00,
2013-11-13 04:07:00,18.7,8.5,29.24,West,270,2.3,2.3,64,0.00,CLR,,0.00,WeatherDisplay:10.37,2013-11-13 10:07:00,
2013-11-13 04:08:00,18.5,8.3,29.24,West,270,2.3,2.3,64,0.00,CLR,,0.00,WeatherDisplay:10.37,2013-11-13 10:08:00,
2013-11-13 04:10:00,18.5,8.3,29.24,WNW,292,5.8,5.8,64,0.00,CLR,,0.00,WeatherDisplay:10.37,2013-11-13 10:10:00,
2013-11-13 04:11:00,18.9,8.7,29.24,South,180,6.9,6.9,64,0.00,CLR,,0.00,WeatherDisplay:10.37,2013-11-13 10:11:00,
2013-11-13 04:12:00,19.0,8.5,29.24,WSW,248,5.8,5.8,63,0.00,CLR,,0.00,WeatherDisplay:10.37,2013-11-13 10:12:00,
2013-11-13 04:13:00,19.0,8.5,29.24,NNW,338,5.8,5.8,63,0.00,CLR,,0.00,WeatherDisplay:10.37,2013-11-13 10:13:00,
2013-11-13 04:15:00,19.0,8.5,29.24,North,0,4.6,4.6,63,0.00,CLR,,0.00,WeatherDisplay:10.37,2013-11-13 10:15:00,
2013-11-13 04:17:00,19.2,8.7,29.24,SSW,202,6.9,6.9,63,0.00,CLR,,0.00,WeatherDisplay:10.37,2013-11-13 10:17:00,
2013-11-13 04:18:00,19.2,8.3,29.24,WSW,248,6.9,6.9,62,0.00,CLR,,0.00,WeatherDisplay:10.37,2013-11-13 10:18:00,
2013-11-13 04:19:00,19.2,8.3,29.24,WSW,248,3.1,3.1,62,0.00,CLR,,0.00,WeatherDisplay:10.37,2013-11-13 10:19:00,
2013-11-13 04:20:00,19.2,8.3,29.24,WSW,248,3.5,3.5,62,0.00,CLR,,0.00,WeatherDisplay:10.37,2013-11-13 10:20:00,
2013-11-13 04:22:00,19.2,8.3,29.24,South,180,3.5,3.5,62,0.00,CLR,,0.00,WeatherDisplay:10.37,2013-11-13 10:22:00,
2013-11-13 04:23:00,19.2,8.3,29.24,SW,225,4.0,4.0,62,0.00,CLR,,0.00,WeatherDisplay:10.37,2013-11-13 10:23:00,
2013-11-13 04:24:00,19.2,8.0,29.20,WNW,292,4.6,4.6,61,0.00,CLR,,0.00,WeatherDisplay:10.37,2013-11-13 10:24:00,
2013-11-13 04:25:00,19.2,8.0,29.20,NNW,338,3.5,3.5,61,0.00,CLR,,0.00,WeatherDisplay:10.37,2013-11-13 10:25:00,
2013-11-13 04:26:00,19.2,8.0,29.20,NNW,338,3.5,3.5,61,0.00,CLR,,0.00,WeatherDisplay:10.37,2013-11-13 10:26:00,
2013-11-13 04:28:00,19.2,8.0,29.20,WSW,248,3.8,3.8,61,0.00,CLR,,0.00,WeatherDisplay:10.37,2013-11-13 10:28:00,
2013-11-13 04:30:00,19.2,8.0,29.20,WSW,248,5.8,5.8,61,0.00,CLR,,0.00,WeatherDisplay:10.37,2013-11-13 10:30:00,
2013-11-13 04:31:00,19.2,8.0,29.20,WNW,292,5.8,5.8,61,0.00,CLR,,0.00,WeatherDisplay:10.37,2013-11-13 10:31:00,
2013-11-13 04:33:00,19.2,8.0,29.20,South,180,4.9,4.9,61,0.00,CLR,,0.00,WeatherDisplay:10.37,2013-11-13 10:33:00,
2013-11-13 04:35:00,19.4,7.8,29.20,WSW,248,5.8,5.8,60,0.00,CLR,,0.00,WeatherDisplay:10.37,2013-11-13 10:35:00,
2013-11-13 04:36:00,19.4,7.8,29.20,WNW,292,4.6,4.6,60,0.00,CLR,,0.00,WeatherDisplay:10.37,2013-11-13 10:36:00,
2013-11-13 04:38:00,19.4,7.8,29.20,WSW,248,4.6,4.6,60,0.00,CLR,,0.00,WeatherDisplay:10.37,2013-11-13 10:38:00,
2013-11-13 04:39:00,19.4,7.8,29.20,West,270,4.6,4.6,60,0.00,CLR,,0.00,WeatherDisplay:10.37,2013-11-13 10:39:00,
2013-11-13 04:40:00,19.4,7.8,29.20,SW,225,2.4,2.4,60,0.00,CLR,,0.00,WeatherDisplay:10.37,2013-11-13 10:40:00,
2013-11-13 04:41:00,19.4,7.8,29.20,NNE,22,2.3,2.3,60,0.00,CLR,,0.00,WeatherDisplay:10.37,2013-11-13 10:41:00,
2013-11-13 04:43:00,19.6,7.6,29.20,NNE,22,4.6,4.6,59,0.00,CLR,,0.00,WeatherDisplay:10.37,2013-11-13 10:43:00,
2013-11-13 04:44:00,19.6,7.6,29.20,WNW,292,4.6,4.6,59,0.00,CLR,,0.00,WeatherDisplay:10.37,2013-11-13 10:44:00,
2013-11-13 04:45:00,19.6,7.6,29.20,SSW,202,5.8,5.8,59,0.00,CLR,,0.00,WeatherDisplay:10.37,2013-11-13 10:45:00,
2013-11-13 04:46:00,19.6,7.6,29.20,WNW,292,5.8,5.8,59,0.00,CLR,,0.00,WeatherDisplay:10.37,2013-11-13 10:46:00,
2013-11-13 04:48:00,19.6,7.6,29.20,NW,315,4.6,4.6,59,0.00,CLR,,0.00,WeatherDisplay:10.37,2013-11-13 10:48:00,
2013-11-13 04:50:00,19.6,7.6,29.20,West,264,2.0,6.0,59,0.00,CLR,,0.00,WeatherDisplay:10.37,2013-11-13 10:50:00,
2013-11-13 04:51:00,19.8,7.7,29.20,West,270,4.6,4.6,59,0.00,CLR,,0.00,WeatherDisplay:10.37,2013-11-13 10:51:00,
2013-11-13 04:54:00,19.8,7.7,29.20,WSW,248,5.4,5.4,59,0.00,CLR,,0.00,WeatherDisplay:10.37,2013-11-13 10:54:00,
2013-11-13 04:55:00,19.8,7.7,29.18,SW,225,5.8,5.8,59,0.00,CLR,,0.00,WeatherDisplay:10.37,2013-11-13 10:55:00,
2013-11-13 04:56:00,19.8,7.7,29.18,NW,315,3.5,3.5,59,0.00,CLR,,0.00,WeatherDisplay:10.37,2013-11-13 10:56:00,
2013-11-13 04:57:00,19.8,7.7,29.18,SW,225,3.5,3.5,59,0.00,CLR,,0.00,WeatherDisplay:10.37,2013-11-13 10:57:00,
2013-11-13 04:59:00,19.8,7.7,29.18,West,270,3.5,3.5,59,0.00,CLR,,0.00,WeatherDisplay:10.37,2013-11-13 10:59:00,
2013-11-13 05:00:00,19.8,7.7,29.18,WSW,248,4.9,4.9,59,0.00,CLR,,0.00,WeatherDisplay:10.37,2013-11-13 11:00:00,
2013-11-13 05:01:00,19.8,7.7,29.18,WSW,248,4.9,4.9,59,0.00,CLR,,0.00,WeatherDisplay:10.37,2013-11-13 11:01:00,
2013-11-13 05:02:00,19.8,7.4,29.18,SW,225,4.6,4.6,58,0.00,CLR,,0.00,WeatherDisplay:10.37,2013-11-13 11:02:00,
2013-11-13 05:04:00,19.8,7.4,29.18,WNW,292,3.6,3.6,58,0.00,CLR,,0.00,WeatherDisplay:10.37,2013-11-13 11:04:00,
2013-11-13 05:06:00,19.9,7.5,29.18,WSW,248,3.5,3.5,58,0.00,CLR,,0.00,WeatherDisplay:10.37,2013-11-13 11:06:00,
2013-11-13 05:07:00,19.9,7.5,29.18,SW,225,8.1,8.1,58,0.00,CLR,,0.00,WeatherDisplay:10.37,2013-11-13 11:07:00,
2013-11-13 05:10:00,19.9,7.5,29.20,WSW,248,4.6,4.6,58,0.00,CLR,,0.00,WeatherDisplay:10.37,2013-11-13 11:10:00,
2013-11-13 05:11:00,19.9,7.5,29.20,WSW,248,5.6,5.6,58,0.00,CLR,,0.00,WeatherDisplay:10.37,2013-11-13 11:11:00,
2013-11-13 05:12:00,19.9,7.5,29.20,WSW,248,5.8,5.8,58,0.00,CLR,,0.00,WeatherDisplay:10.37,2013-11-13 11:12:00,
2013-11-13 05:15:00,19.8,7.4,29.20,North,0,3.5,3.5,58,0.00,CLR,,0.00,WeatherDisplay:10.37,2013-11-13 11:15:00,
2013-11-13 05:16:00,19.8,7.4,29.20,NW,315,3.5,3.5,58,0.00,CLR,,0.00,WeatherDisplay:10.37,2013-11-13 11:16:00,
2013-11-13 05:17:00,19.9,7.5,29.20,West,270,4.6,4.6,58,0.00,CLR,,0.00,WeatherDisplay:10.37,2013-11-13 11:17:00,
2013-11-13 05:20:00,19.8,7.4,29.20,North,0,3.8,3.8,58,0.00,CLR,,0.00,WeatherDisplay:10.37,2013-11-13 11:20:00,
2013-11-13 05:21:00,19.8,7.4,29.20,WSW,248,3.5,3.5,58,0.00,CLR,,0.00,WeatherDisplay:10.37,2013-11-13 11:21:00,
2013-11-13 05:22:00,19.8,7.4,29.20,West,270,3.5,3.5,58,0.00,CLR,,0.00,WeatherDisplay:10.37,2013-11-13 11:22:00,
2013-11-13 05:23:00,19.8,7.4,29.20,WSW,248,4.0,4.0,58,0.00,CLR,,0.00,WeatherDisplay:10.37,2013-11-13 11:23:00,
2013-11-13 05:25:00,19.9,7.5,29.20,WSW,248,3.5,3.5,58,0.00,CLR,,0.00,WeatherDisplay:10.37,2013-11-13 11:25:00,
2013-11-13 05:26:00,19.9,7.5,29.20,SSW,202,5.8,5.8,58,0.00,CLR,,0.00,WeatherDisplay:10.37,2013-11-13 11:26:00,
2013-11-13 05:27:00,19.9,7.5,29.20,ENE,68,6.9,6.9,58,0.00,CLR,,0.00,WeatherDisplay:10.37,2013-11-13 11:27:00,
2013-11-13 05:28:00,19.9,7.5,29.20,West,270,6.9,6.9,58,0.00,CLR,,0.00,WeatherDisplay:10.37,2013-11-13 11:28:00,
2013-11-13 05:31:00,19.9,7.5,29.20,SW,225,8.1,8.1,58,0.00,CLR,,0.00,WeatherDisplay:10.37,2013-11-13 11:31:00,
2013-11-13 05:32:00,20.1,7.7,29.20,WNW,292,8.1,8.1,58,0.00,CLR,,0.00,WeatherDisplay:10.37,2013-11-13 11:32:00,
2013-11-13 05:33:00,19.9,7.5,29.20,WSW,248,4.6,4.6,58,0.00,CLR,,0.00,WeatherDisplay:10.37,2013-11-13 11:33:00,
2013-11-13 05:36:00,19.9,7.5,29.20,WSW,248,8.1,8.1,58,0.00,CLR,,0.00,WeatherDisplay:10.37,2013-11-13 11:36:00,
2013-11-13 05:37:00,19.9,7.5,29.20,South,180,6.9,6.9,58,0.00,CLR,,0.00,WeatherDisplay:10.37,2013-11-13 11:37:00,
2013-11-13 05:38:00,19.9,7.5,29.20,SW,225,5.8,5.8,58,0.00,CLR,,0.00,WeatherDisplay:10.37,2013-11-13 11:38:00,
2013-11-13 05:41:00,19.9,7.5,29.20,NNW,338,4.6,4.6,58,0.00,CLR,,0.00,WeatherDisplay:10.37,2013-11-13 11:41:00,
2013-11-13 05:42:00,19.9,7.5,29.20,SW,225,3.5,3.5,58,0.00,CLR,,0.00,WeatherDisplay:10.37,2013-11-13 11:42:00,
2013-11-13 05:43:00,19.9,7.5,29.20,NW,315,4.6,4.6,58,0.00,CLR,,0.00,WeatherDisplay:10.37,2013-11-13 11:43:00,
2013-11-13 05:44:00,19.9,7.5,29.20,WSW,248,4.6,4.6,58,0.00,CLR,,0.00,WeatherDisplay:10.37,2013-11-13 11:44:00,
2013-11-13 05:47:00,19.9,7.5,29.20,West,270,7.4,7.4,58,0.00,CLR,,0.00,WeatherDisplay:10.37,2013-11-13 11:47:00,
2013-11-13 05:48:00,19.9,7.5,29.20,SW,225,6.9,6.9,58,0.00,CLR,,0.00,WeatherDisplay:10.37,2013-11-13 11:48:00,
2013-11-13 05:49:00,19.9,7.5,29.20,WNW,292,3.5,3.5,58,0.00,CLR,,0.00,WeatherDisplay:10.37,2013-11-13 11:49:00,
2013-11-13 05:52:00,19.9,7.5,29.20,WSW,248,4.6,4.6,58,0.00,CLR,,0.00,WeatherDisplay:10.37,2013-11-13 11:52:00,
2013-11-13 05:53:00,19.9,7.5,29.20,NW,315,3.5,3.5,58,0.00,CLR,,0.00,WeatherDisplay:10.37,2013-11-13 11:53:00,
2013-11-13 05:54:00,19.9,7.5,29.20,South,180,2.3,2.3,58,0.00,CLR,,0.00,WeatherDisplay:10.37,2013-11-13 11:54:00,
2013-11-13 05:57:00,19.9,7.5,29.18,WNW,292,9.2,9.2,58,0.00,CLR,,0.00,WeatherDisplay:10.37,2013-11-13 11:57:00,
2013-11-13 05:58:00,19.9,7.5,29.18,WNW,292,3.5,3.5,58,0.00,CLR,,0.00,WeatherDisplay:10.37,2013-11-13 11:58:00,
2013-11-13 05:59:00,19.9,7.5,29.18,SSE,158,3.5,3.5,58,0.00,CLR,,0.00,WeatherDisplay:10.37,2013-11-13 11:59:00,
2013-11-13 06:03:00,19.9,7.5,29.18,WNW,292,2.4,2.6,58,0.00,CLR,,0.00,WeatherDisplay:10.37,2013-11-13 12:03:00,
2013-11-13 06:04:00,19.9,7.5,29.18,WSW,248,3.5,3.5,58,0.00,CLR,,0.00,WeatherDisplay:10.37,2013-11-13 12:04:00,
2013-11-13 06:08:00,19.9,7.5,29.18,WSW,248,3.5,3.5,58,0.00,CLR,,0.00,WeatherDisplay:10.37,2013-11-13 12:08:00,
2013-11-13 06:09:00,19.9,7.5,29.18,SW,225,3.5,3.5,58,0.00,CLR,,0.00,WeatherDisplay:10.37,2013-11-13 12:09:00,
2013-11-13 06:10:00,19.9,7.5,29.20,South,180,5.4,5.4,58,0.00,CLR,,0.00,WeatherDisplay:10.37,2013-11-13 12:10:00,
2013-11-13 06:13:00,20.1,7.7,29.20,WSW,248,5.8,5.8,58,0.00,CLR,,0.00,WeatherDisplay:10.37,2013-11-13 12:13:00,
2013-11-13 06:14:00,19.9,7.5,29.20,SW,225,3.5,3.5,58,0.00,CLR,,0.00,WeatherDisplay:10.37,2013-11-13 12:14:00,
2013-11-13 06:15:00,19.9,7.5,29.20,NW,315,2.3,2.3,58,0.00,CLR,,0.00,WeatherDisplay:10.37,2013-11-13 12:15:00,
2013-11-13 06:18:00,19.9,7.5,29.20,SSW,202,1.2,1.2,58,0.00,CLR,,0.00,WeatherDisplay:10.37,2013-11-13 12:18:00,
2013-11-13 06:19:00,19.9,7.5,29.20,South,180,1.2,1.2,58,0.00,CLR,,0.00,WeatherDisplay:10.37,2013-11-13 12:19:00,
2013-11-13 06:20:00,19.9,7.5,29.20,WSW,248,2.3,2.3,58,0.00,CLR,,0.00,WeatherDisplay:10.37,2013-11-13 12:20:00,
2013-11-13 06:23:00,19.9,7.5,29.20,WSW,248,2.3,2.3,58,0.00,CLR,,0.00,WeatherDisplay:10.37,2013-11-13 12:23:00,
2013-11-13 06:24:00,19.9,7.5,29.20,SW,225,2.4,2.4,58,0.00,CLR,,0.00,WeatherDisplay:10.37,2013-11-13 12:24:00,
2013-11-13 06:25:00,19.8,7.4,29.18,SSW,202,2.4,2.4,58,0.00,CLR,,0.00,WeatherDisplay:10.37,2013-11-13 12:25:00,
2013-11-13 06:29:00,19.8,7.4,29.18,WSW,248,1.2,0.0,58,0.00,CLR,,0.00,WeatherDisplay:10.37,2013-11-13 12:29:00,
2013-11-13 06:30:00,19.8,7.4,29.18,NW,315,2.6,0.0,58,0.00,CLR,,0.00,WeatherDisplay:10.37,2013-11-13 12:30:00,
2013-11-13 06:31:00,19.8,7.4,29.18,SSW,202,2.3,2.3,58,0.00,CLR,,0.00,WeatherDisplay:10.37,2013-11-13 12:31:00,
2013-11-13 06:34:00,19.8,7.4,29.18,SSE,158,2.3,2.3,58,0.00,CLR,,0.00,WeatherDisplay:10.37,2013-11-13 12:34:00,
2013-11-13 06:35:00,19.8,7.4,29.18,SSE,158,2.3,2.3,58,0.00,CLR,,0.00,WeatherDisplay:10.37,2013-11-13 12:35:00,
2013-11-13 06:36:00,19.8,7.4,29.18,SW,225,2.3,2.3,58,0.00,CLR,,0.00,WeatherDisplay:10.37,2013-11-13 12:36:00,
2013-11-13 06:39:00,19.9,7.5,29.18,South,180,4.6,4.6,58,0.00,CLR,,0.00,WeatherDisplay:10.37,2013-11-13 12:39:00,
2013-11-13 06:40:00,19.9,7.5,29.15,WNW,292,2.3,2.3,58,0.00,CLR,,0.00,WeatherDisplay:10.37,2013-11-13 12:40:00,
2013-11-13 06:41:00,19.9,7.5,29.15,SSW,202,2.3,2.3,58,0.00,CLR,,0.00,WeatherDisplay:10.37,2013-11-13 12:41:00,
2013-11-13 06:44:00,19.9,7.5,29.15,SW,225,3.5,3.5,58,0.00,CLR,,0.00,WeatherDisplay:10.37,2013-11-13 12:44:00,
2013-11-13 06:45:00,20.1,7.7,29.15,SW,225,3.5,3.5,58,0.00,CLR,,0.00,WeatherDisplay:10.37,2013-11-13 12:45:00,
2013-11-13 06:46:00,20.1,7.7,29.15,South,180,3.3,3.3,58,0.00,CLR,,0.00,WeatherDisplay:10.37,2013-11-13 12:46:00,
2013-11-13 06:49:00,20.3,7.9,29.15,SSW,202,2.4,2.6,58,0.00,CLR,,0.00,WeatherDisplay:10.37,2013-11-13 12:49:00,
2013-11-13 06:50:00,20.3,7.9,29.15,SSW,202,2.4,2.6,58,0.00,CLR,,0.00,WeatherDisplay:10.37,2013-11-13 12:50:00,
2013-11-13 06:51:00,20.3,7.9,29.15,SSW,202,4.7,4.7,58,0.00,CLR,,0.00,WeatherDisplay:10.37,2013-11-13 12:51:00,
2013-11-13 06:54:00,20.5,8.0,29.15,SW,215,2.0,6.0,58,0.00,CLR,,0.00,WeatherDisplay:10.37,2013-11-13 12:54:00,
2013-11-13 06:55:00,20.5,8.0,29.15,SSW,202,2.3,2.3,58,0.00,CLR,,0.00,WeatherDisplay:10.37,2013-11-13 12:55:00,
2013-11-13 06:56:00,20.5,7.6,29.15,WSW,248,4.6,4.6,57,0.00,CLR,,0.00,WeatherDisplay:10.37,2013-11-13 12:56:00,
2013-11-13 06:57:00,20.5,7.6,29.15,WSW,248,4.6,4.6,57,0.00,CLR,,0.00,WeatherDisplay:10.37,2013-11-13 12:57:00,
2013-11-13 07:00:00,20.7,7.8,29.15,West,270,3.8,3.8,57,0.00,CLR,,0.00,WeatherDisplay:10.37,2013-11-13 13:00:00,
2013-11-13 07:01:00,20.7,7.8,29.15,SE,135,3.5,3.5,57,0.00,CLR,,0.00,WeatherDisplay:10.37,2013-11-13 13:01:00,
2013-11-13 07:02:00,20.7,7.8,29.15,South,180,3.5,3.5,57,0.00,CLR,,0.00,WeatherDisplay:10.37,2013-11-13 13:02:00,
2013-11-13 07:05:00,21.0,8.2,29.15,West,270,4.6,4.6,57,0.00,CLR,,0.00,WeatherDisplay:10.37,2013-11-13 13:05:00,
2013-11-13 07:06:00,21.0,8.2,29.15,North,0,4.6,4.6,57,0.00,CLR,,0.00,WeatherDisplay:10.37,2013-11-13 13:06:00,
2013-11-13 07:07:00,21.2,8.3,29.15,West,270,5.8,5.8,57,0.00,CLR,,0.00,WeatherDisplay:10.37,2013-11-13 13:07:00,
2013-11-13 07:10:00,21.4,8.1,29.15,SW,225,4.6,4.6,56,0.00,CLR,,0.00,WeatherDisplay:10.37,2013-11-13 13:10:00,
2013-11-13 07:11:00,21.6,8.3,29.15,SW,225,3.5,3.5,56,0.00,CLR,,0.00,WeatherDisplay:10.37,2013-11-13 13:11:00,
2013-11-13 07:12:00,21.6,7.9,29.15,SSW,202,5.8,5.8,55,0.00,CLR,,0.00,WeatherDisplay:10.37,2013-11-13 13:12:00,
2013-11-13 07:15:00,21.9,8.2,29.15,SSW,202,3.5,3.5,55,0.00,CLR,,0.00,WeatherDisplay:10.37,2013-11-13 13:15:00,
2013-11-13 07:16:00,22.1,8.4,29.15,SSW,202,2.3,2.3,55,0.00,CLR,,0.00,WeatherDisplay:10.37,2013-11-13 13:16:00,
2013-11-13 07:17:00,21.9,8.2,29.15,WSW,248,2.9,2.9,55,0.00,CLR,,0.00,WeatherDisplay:10.37,2013-11-13 13:17:00,
2013-11-13 07:20:00,21.9,7.8,29.15,WSW,248,3.5,3.5,54,0.00,CLR,,0.00,WeatherDisplay:10.37,2013-11-13 13:20:00,
2013-11-13 07:21:00,21.9,7.8,29.15,South,180,4.6,4.6,54,0.00,CLR,,0.00,WeatherDisplay:10.37,2013-11-13 13:21:00,
2013-11-13 07:22:00,21.9,7.8,29.15,SSW,202,5.8,5.8,54,0.00,CLR,,0.00,WeatherDisplay:10.37,2013-11-13 13:22:00,
2013-11-13 07:25:00,22.1,8.0,29.12,SSW,202,4.6,4.6,54,0.00,CLR,,0.00,WeatherDisplay:10.37,2013-11-13 13:25:00,
2013-11-13 07:26:00,22.1,8.0,29.12,SW,225,4.6,4.6,54,0.00,CLR,,0.00,WeatherDisplay:10.37,2013-11-13 13:26:00,
2013-11-13 07:27:00,22.1,8.0,29.12,SSW,202,5.8,5.8,54,0.00,CLR,,0.00,WeatherDisplay:10.37,2013-11-13 13:27:00,
2013-11-13 07:31:00,23.4,8.7,29.12,SSW,202,4.6,4.6,53,0.00,CLR,,0.00,WeatherDisplay:10.37,2013-11-13 13:31:00,
2013-11-13 07:32:00,23.5,8.9,29.12,NE,45,6.9,6.9,53,0.00,CLR,,0.00,WeatherDisplay:10.37,2013-11-13 13:32:00,
2013-11-13 07:33:00,23.5,8.9,29.12,SSW,202,4.6,4.6,53,0.00,CLR,,0.00,WeatherDisplay:10.37,2013-11-13 13:33:00,
2013-11-13 07:34:00,23.7,9.1,29.12,SW,225,4.6,4.6,53,0.00,CLR,,0.00,WeatherDisplay:10.37,2013-11-13 13:34:00,
2013-11-13 07:36:00,24.4,9.7,29.12,SW,225,5.8,5.8,53,0.00,CLR,,0.00,WeatherDisplay:10.37,2013-11-13 13:36:00,
2013-11-13 07:37:00,24.4,9.7,29.12,WSW,248,7.1,7.1,53,0.00,CLR,,0.00,WeatherDisplay:10.37,2013-11-13 13:37:00,
2013-11-13 07:38:00,24.6,9.5,29.12,SW,225,6.9,6.9,52,0.00,CLR,,0.00,WeatherDisplay:10.37,2013-11-13 13:38:00,
2013-11-13 07:39:00,25.0,9.8,29.12,South,180,3.6,3.6,52,0.00,CLR,,0.00,WeatherDisplay:10.37,2013-11-13 13:39:00,
2013-11-13 07:41:00,25.3,9.3,29.15,SSW,202,8.1,8.1,50,0.00,CLR,,0.00,WeatherDisplay:10.37,2013-11-13 13:41:00,
2013-11-13 07:42:00,25.3,9.3,29.15,SSW,202,4.6,4.6,50,0.00,CLR,,0.00,WeatherDisplay:10.37,2013-11-13 13:42:00,
2013-11-13 07:43:00,25.3,9.3,29.15,South,180,3.5,3.5,50,0.00,CLR,,0.00,WeatherDisplay:10.37,2013-11-13 13:43:00,
2013-11-13 07:45:00,25.7,10.0,29.15,NNW,338,3.5,3.5,51,0.00,CLR,,0.00,WeatherDisplay:10.37,2013-11-13 13:45:00,
2013-11-13 07:46:00,26.2,10.5,29.15,WSW,248,3.5,3.5,51,0.00,CLR,,0.00,WeatherDisplay:10.37,2013-11-13 13:46:00,
2013-11-13 07:47:00,26.2,10.5,29.15,SW,225,2.9,3.1,51,0.00,CLR,,0.00,WeatherDisplay:10.37,2013-11-13 13:47:00,
2013-11-13 07:48:00,26.4,10.7,29.15,South,180,4.6,4.6,51,0.00,CLR,,0.00,WeatherDisplay:10.37,2013-11-13 13:48:00,
2013-11-13 07:50:00,26.8,10.6,29.15,SSW,202,2.4,2.4,50,0.00,CLR,,0.00,WeatherDisplay:10.37,2013-11-13 13:50:00,
2013-11-13 07:51:00,27.0,10.3,29.15,SSW,202,3.5,3.5,49,0.00,CLR,,0.00,WeatherDisplay:10.37,2013-11-13 13:51:00,
2013-11-13 07:52:00,27.0,10.3,29.15,SSW,202,3.5,3.5,49,0.00,CLR,,0.00,WeatherDisplay:10.37,2013-11-13 13:52:00,
2013-11-13 07:53:00,27.3,10.6,29.15,West,270,3.6,3.6,49,0.00,CLR,,0.00,WeatherDisplay:10.37,2013-11-13 13:53:00,
2013-11-13 07:54:00,27.5,10.8,29.15,SSW,202,3.5,3.5,49,0.00,CLR,,0.00,WeatherDisplay:10.37,2013-11-13 13:54:00,
2013-11-13 07:56:00,27.7,10.5,29.15,South,180,3.5,3.5,48,0.00,CLR,,0.00,WeatherDisplay:10.37,2013-11-13 13:56:00,
2013-11-13 07:58:00,27.7,10.5,29.15,SW,225,3.6,3.6,48,0.00,CLR,,0.00,WeatherDisplay:10.37,2013-11-13 13:58:00,
2013-11-13 07:59:00,27.7,10.0,29.15,SSW,202,3.5,3.5,47,0.00,CLR,,0.00,WeatherDisplay:10.37,2013-11-13 13:59:00,
2013-11-13 08:01:00,27.9,9.7,29.15,SSW,202,5.8,5.8,46,0.00,CLR,,0.00,WeatherDisplay:10.37,2013-11-13 14:01:00,
2013-11-13 08:02:00,27.9,9.7,29.15,SSW,202,5.8,5.8,46,0.00,CLR,,0.00,WeatherDisplay:10.37,2013-11-13 14:02:00,
2013-11-13 08:03:00,27.7,9.6,29.15,WSW,248,8.1,8.1,46,0.00,CLR,,0.00,WeatherDisplay:10.37,2013-11-13 14:03:00,
2013-11-13 08:04:00,27.3,8.7,29.15,WSW,248,8.1,8.1,45,0.00,CLR,,0.00,WeatherDisplay:10.37,2013-11-13 14:04:00,
2013-11-13 08:07:00,27.0,8.9,29.15,WSW,248,3.5,3.5,46,0.00,CLR,,0.00,WeatherDisplay:10.37,2013-11-13 14:07:00,
2013-11-13 08:08:00,27.0,8.9,29.15,WSW,248,4.0,4.0,46,0.00,CLR,,0.00,WeatherDisplay:10.37,2013-11-13 14:08:00,
2013-11-13 08:09:00,26.8,8.7,29.15,SW,225,5.8,5.8,46,0.00,CLR,,0.00,WeatherDisplay:10.37,2013-11-13 14:09:00,
2013-11-13 08:10:00,27.0,8.9,29.12,South,180,4.6,4.6,46,0.00,CLR,,0.00,WeatherDisplay:10.37,2013-11-13 14:10:00,
2013-11-13 08:12:00,26.8,8.7,29.12,SSW,202,4.6,4.6,46,0.00,CLR,,0.00,WeatherDisplay:10.37,2013-11-13 14:12:00,
2013-11-13 08:13:00,26.8,8.7,29.12,NW,315,3.5,3.5,46,0.00,CLR,,0.00,WeatherDisplay:10.37,2013-11-13 14:13:00,
2013-11-13 08:14:00,27.0,8.9,29.12,West,270,2.9,2.9,46,0.00,CLR,,0.00,WeatherDisplay:10.37,2013-11-13 14:14:00,
2013-11-13 08:15:00,26.8,8.7,29.12,SSW,202,3.8,3.8,46,0.00,CLR,,0.00,WeatherDisplay:10.37,2013-11-13 14:15:00,
2013-11-13 08:16:00,26.6,8.6,29.12,South,180,6.4,6.4,46,0.00,CLR,,0.00,WeatherDisplay:10.37,2013-11-13 14:16:00,
2013-11-13 08:17:00,26.8,8.7,29.12,SSW,202,6.9,6.9,46,0.00,CLR,,0.00,WeatherDisplay:10.37,2013-11-13 14:17:00,
2013-11-13 08:18:00,26.8,8.7,29.12,South,180,4.6,4.6,46,0.00,CLR,,0.00,WeatherDisplay:10.37,2013-11-13 14:18:00,
2013-11-13 08:19:00,27.0,8.9,29.12,SW,225,3.5,3.5,46,0.00,CLR,,0.00,WeatherDisplay:10.37,2013-11-13 14:19:00,
2013-11-13 08:20:00,27.3,9.2,29.12,South,180,2.4,2.4,46,0.00,CLR,,0.00,WeatherDisplay:10.37,2013-11-13 14:20:00,
2013-11-13 08:21:00,27.7,9.6,29.12,North,0,3.1,3.1,46,0.00,CLR,,0.00,WeatherDisplay:10.37,2013-11-13 14:21:00,
2013-11-13 08:22:00,27.9,10.2,29.12,SSW,202,3.6,3.6,47,0.00,CLR,,0.00,WeatherDisplay:10.37,2013-11-13 14:22:00,
2013-11-13 08:23:00,27.9,10.2,29.12,WSW,248,4.6,4.6,47,0.00,CLR,,0.00,WeatherDisplay:10.37,2013-11-13 14:23:00,
2013-11-13 08:24:00,28.2,10.1,29.12,ENE,68,4.6,4.6,46,0.00,CLR,,0.00,WeatherDisplay:10.37,2013-11-13 14:24:00,
2013-11-13 08:26:00,28.6,9.9,29.12,SW,225,4.6,4.6,45,0.00,CLR,,0.00,WeatherDisplay:10.37,2013-11-13 14:26:00,
2013-11-13 08:28:00,29.1,10.4,29.12,WSW,248,8.1,8.1,45,0.00,CLR,,0.00,WeatherDisplay:10.37,2013-11-13 14:28:00,
2013-11-13 08:29:00,29.1,9.9,29.12,West,270,8.1,8.1,44,0.00,CLR,,0.00,WeatherDisplay:10.37,2013-11-13 14:29:00,
2013-11-13 08:31:00,29.5,10.2,29.12,West,270,5.8,5.8,44,0.00,CLR,,0.00,WeatherDisplay:10.37,2013-11-13 14:31:00,
2013-11-13 08:33:00,30.2,11.4,29.12,South,180,3.5,3.5,45,0.00,CLR,,0.00,WeatherDisplay:10.37,2013-11-13 14:33:00,
2013-11-13 08:34:00,30.4,11.0,29.12,SSW,202,3.5,3.5,44,0.00,CLR,,0.00,WeatherDisplay:10.37,2013-11-13 14:34:00,
2013-11-13 08:35:00,30.2,10.9,29.12,WSW,248,4.6,4.6,44,0.00,CLR,,0.00,WeatherDisplay:10.37,2013-11-13 14:35:00,
2013-11-13 08:36:00,29.7,9.9,29.12,SW,225,5.8,5.8,43,0.00,CLR,,0.00,WeatherDisplay:10.37,2013-11-13 14:36:00,
2013-11-13 08:38:00,29.5,9.7,29.12,WSW,248,5.8,5.8,43,0.00,CLR,,0.00,WeatherDisplay:10.37,2013-11-13 14:38:00,
2013-11-13 08:39:00,29.5,9.7,29.12,SSW,202,5.9,5.9,43,0.00,CLR,,0.00,WeatherDisplay:10.37,2013-11-13 14:39:00,
2013-11-13 08:40:00,29.1,9.4,29.09,South,180,5.8,5.8,43,0.00,CLR,,0.00,WeatherDisplay:10.37,2013-11-13 14:40:00,
2013-11-13 08:41:00,29.3,9.5,29.09,SSW,202,4.6,4.6,43,0.00,CLR,,0.00,WeatherDisplay:10.37,2013-11-13 14:41:00,
2013-11-13 08:42:00,29.3,9.5,29.09,WSW,248,6.9,6.9,43,0.00,CLR,,0.00,WeatherDisplay:10.37,2013-11-13 14:42:00,
2013-11-13 08:43:00,29.3,9.5,29.09,South,180,6.9,6.9,43,0.00,CLR,,0.00,WeatherDisplay:10.37,2013-11-13 14:43:00,
2013-11-13 08:44:00,28.9,9.2,29.09,West,270,5.4,5.4,43,0.00,CLR,,0.00,WeatherDisplay:10.37,2013-11-13 14:44:00,
2013-11-13 08:45:00,29.1,9.4,29.09,SSW,202,9.2,9.2,43,0.00,CLR,,0.00,WeatherDisplay:10.37,2013-11-13 14:45:00,
2013-11-13 08:47:00,29.1,9.4,29.09,SW,225,6.9,6.9,43,0.00,CLR,,0.00,WeatherDisplay:10.37,2013-11-13 14:47:00,
2013-11-13 08:48:00,29.1,9.4,29.09,SSW,202,8.1,8.1,43,0.00,CLR,,0.00,WeatherDisplay:10.37,2013-11-13 14:48:00,
2013-11-13 08:49:00,29.1,9.4,29.09,West,270,5.8,5.8,43,0.00,CLR,,0.00,WeatherDisplay:10.37,2013-11-13 14:49:00,
2013-11-13 08:50:00,29.3,9.5,29.09,South,180,3.5,3.5,43,0.00,CLR,,0.00,WeatherDisplay:10.37,2013-11-13 14:50:00,
2013-11-13 08:52:00,29.7,9.9,29.09,SSW,202,4.6,4.6,43,0.00,CLR,,0.00,WeatherDisplay:10.37,2013-11-13 14:52:00,
2013-11-13 08:53:00,29.8,10.0,29.09,SSE,158,3.5,3.5,43,0.00,CLR,,0.00,WeatherDisplay:10.37,2013-11-13 14:53:00,
2013-11-13 08:54:00,30.2,10.4,29.09,WSW,248,5.9,5.9,43,0.00,CLR,,0.00,WeatherDisplay:10.37,2013-11-13 14:54:00,
2013-11-13 08:55:00,30.4,10.5,29.09,SSW,202,5.8,5.8,43,0.00,CLR,,0.00,WeatherDisplay:10.37,2013-11-13 14:55:00,
2013-11-13 08:56:00,30.6,10.7,29.09,North,0,4.6,4.6,43,0.00,CLR,,0.00,WeatherDisplay:10.37,2013-11-13 14:56:00,
2013-11-13 08:57:00,30.4,10.0,29.09,SW,225,6.9,6.9,42,0.00,CLR,,0.00,WeatherDisplay:10.37,2013-11-13 14:57:00,
2013-11-13 08:58:00,30.4,10.0,29.09,SW,225,6.9,6.9,42,0.00,CLR,,0.00,WeatherDisplay:10.37,2013-11-13 14:58:00,
2013-11-13 08:59:00,30.6,10.2,29.09,SW,225,6.9,6.9,42,0.00,CLR,,0.00,WeatherDisplay:10.37,2013-11-13 14:59:00,
2013-11-13 09:01:00,30.9,10.5,29.09,South,180,4.6,4.6,42,0.00,CLR,,0.00,WeatherDisplay:10.37,2013-11-13 15:01:00,
2013-11-13 09:03:00,30.6,10.2,29.09,SSW,202,4.6,4.6,42,0.00,CLR,,0.00,WeatherDisplay:10.37,2013-11-13 15:03:00,
2013-11-13 09:04:00,30.6,10.2,29.09,NNW,338,5.8,5.8,42,0.00,CLR,,0.00,WeatherDisplay:10.37,2013-11-13 15:04:00,
2013-11-13 09:06:00,31.1,10.6,29.09,South,180,6.0,6.0,42,0.00,CLR,,0.00,WeatherDisplay:10.37,2013-11-13 15:06:00,
2013-11-13 09:08:00,31.3,10.8,29.09,SSE,158,6.0,6.0,42,0.00,CLR,,0.00,WeatherDisplay:10.37,2013-11-13 15:08:00,
2013-11-13 09:09:00,32.0,11.5,29.09,South,180,5.8,5.8,42,0.00,CLR,,0.00,WeatherDisplay:10.37,2013-11-13 15:09:00,
2013-11-13 09:11:00,32.7,12.1,29.09,SW,225,5.8,5.8,42,0.00,CLR,,0.00,WeatherDisplay:10.37,2013-11-13 15:11:00,
2013-11-13 09:12:00,32.7,12.1,29.09,South,180,6.4,6.4,42,0.00,CLR,,0.00,WeatherDisplay:10.37,2013-11-13 15:12:00,
2013-11-13 09:14:00,32.7,11.6,29.09,WSW,248,5.8,5.8,41,0.00,CLR,,0.00,WeatherDisplay:10.37,2013-11-13 15:14:00,
2013-11-13 09:17:00,32.9,11.7,29.09,SSW,202,6.9,6.9,41,0.00,CLR,,0.00,WeatherDisplay:10.37,2013-11-13 15:17:00,
2013-11-13 09:19:00,32.7,11.6,29.09,SSW,202,10.4,10.4,41,0.00,CLR,,0.00,WeatherDisplay:10.37,2013-11-13 15:19:00,
2013-11-13 09:20:00,32.8,11.6,29.09,SW,219,5.0,10.0,41,0.00,CLR,,0.00,WeatherDisplay:10.37,2013-11-13 15:20:00,
2013-11-13 09:22:00,32.9,11.7,29.09,SSW,202,6.9,6.9,41,0.00,CLR,,0.00,WeatherDisplay:10.37,2013-11-13 15:22:00,
2013-11-13 09:23:00,33.1,11.9,29.09,West,270,6.9,6.9,41,0.00,CLR,,0.00,WeatherDisplay:10.37,2013-11-13 15:23:00,
2013-11-13 09:24:00,33.1,11.9,29.09,SSW,202,5.8,5.8,41,0.00,CLR,,0.00,WeatherDisplay:10.37,2013-11-13 15:24:00,
2013-11-13 09:25:00,33.6,12.4,29.09,SW,225,4.6,4.6,41,0.00,CLR,,0.00,WeatherDisplay:10.37,2013-11-13 15:25:00,
2013-11-13 09:27:00,34.3,13.0,29.09,SSW,202,4.6,4.6,41,0.00,CLR,,0.00,WeatherDisplay:10.37,2013-11-13 15:27:00,
2013-11-13 09:28:00,34.3,13.0,29.09,WSW,248,6.2,6.2,41,0.00,CLR,,0.00,WeatherDisplay:10.37,2013-11-13 15:28:00,
2013-11-13 09:29:00,34.7,13.4,29.09,West,270,5.8,5.8,41,0.00,CLR,,0.00,WeatherDisplay:10.37,2013-11-13 15:29:00,
2013-11-13 09:30:00,34.9,13.0,29.09,SSW,202,5.8,5.8,40,0.00,CLR,,0.00,WeatherDisplay:10.37,2013-11-13 15:30:00,
2013-11-13 09:33:00,34.3,12.5,29.09,ESE,112,4.6,4.6,40,0.00,CLR,,0.00,WeatherDisplay:10.37,2013-11-13 15:33:00,
2013-11-13 09:34:00,34.7,12.8,29.09,South,180,3.5,3.5,40,0.00,CLR,,0.00,WeatherDisplay:10.37,2013-11-13 15:34:00,
2013-11-13 09:35:00,34.9,13.0,29.09,SSE,158,3.8,3.8,40,0.00,CLR,,0.00,WeatherDisplay:10.37,2013-11-13 15:35:00,
2013-11-13 09:38:00,35.8,13.8,29.09,West,270,8.1,8.1,40,0.00,CLR,,0.00,WeatherDisplay:10.37,2013-11-13 15:38:00,
2013-11-13 09:40:00,35.8,13.2,29.09,SSW,202,5.8,5.8,39,0.00,CLR,,0.00,WeatherDisplay:10.37,2013-11-13 15:40:00,
2013-11-13 09:41:00,36.0,13.9,29.09,SSW,202,5.8,5.8,40,0.00,CLR,,0.00,WeatherDisplay:10.37,2013-11-13 15:41:00,
2013-11-13 09:43:00,36.3,14.3,29.09,SW,225,5.8,5.8,40,0.00,CLR,,0.00,WeatherDisplay:10.37,2013-11-13 15:43:00,
2013-11-13 09:45:00,36.7,14.6,29.09,SSW,202,5.8,5.8,40,0.00,CLR,,0.00,WeatherDisplay:10.37,2013-11-13 15:45:00,
2013-11-13 09:46:00,36.9,14.8,29.09,SSW,202,5.8,5.8,40,0.00,CLR,,0.00,WeatherDisplay:10.37,2013-11-13 15:46:00,
2013-11-13 09:49:00,36.9,14.2,29.09,South,180,10.4,10.4,39,0.00,CLR,,0.00,WeatherDisplay:10.37,2013-11-13 15:49:00,
2013-11-13 09:50:00,36.9,14.2,29.09,SW,225,8.1,8.1,39,0.00,CLR,,0.00,WeatherDisplay:10.37,2013-11-13 15:50:00,
2013-11-13 09:51:00,36.7,14.0,29.09,South,180,8.5,8.5,39,0.00,CLR,,0.00,WeatherDisplay:10.37,2013-11-13 15:51:00,
2013-11-13 09:52:00,36.1,12.9,29.09,South,180,8.1,8.1,38,0.00,CLR,,0.00,WeatherDisplay:10.37,2013-11-13 15:52:00,
2013-11-13 09:54:00,35.4,12.9,29.09,NW,315,9.2,9.2,39,0.00,CLR,,0.00,WeatherDisplay:10.37,2013-11-13 15:54:00,
2013-11-13 09:55:00,35.2,12.7,29.09,South,180,7.4,7.4,39,0.00,CLR,,0.00,WeatherDisplay:10.37,2013-11-13 15:55:00,
2013-11-13 09:56:00,34.9,12.4,29.09,WSW,248,6.9,6.9,39,0.00,CLR,,0.00,WeatherDisplay:10.37,2013-11-13 15:56:00,
2013-11-13 09:57:00,34.9,13.0,29.09,SSW,202,4.7,4.7,40,0.00,CLR,,0.00,WeatherDisplay:10.37,2013-11-13 15:57:00,
2013-11-13 09:59:00,35.2,13.3,29.09,SSW,202,5.6,5.6,40,0.00,CLR,,0.00,WeatherDisplay:10.37,2013-11-13 15:59:00,
2013-11-13 10:00:00,35.1,12.6,29.09,West,270,6.9,6.9,39,0.00,CLR,,0.00,WeatherDisplay:10.37,2013-11-13 16:00:00,
2013-11-13 10:01:00,35.4,13.5,29.09,SW,225,6.9,6.9,40,0.00,CLR,,0.00,WeatherDisplay:10.37,2013-11-13 16:01:00,
2013-11-13 10:02:00,35.6,13.0,29.09,SSE,158,5.9,5.9,39,0.00,CLR,,0.00,WeatherDisplay:10.37,2013-11-13 16:02:00,
2013-11-13 10:03:00,35.6,13.0,29.09,NNW,338,6.9,6.9,39,0.00,CLR,,0.00,WeatherDisplay:10.37,2013-11-13 16:03:00,
2013-11-13 10:05:00,36.1,13.5,29.09,WSW,248,8.5,8.5,39,0.00,CLR,,0.00,WeatherDisplay:10.37,2013-11-13 16:05:00,
2013-11-13 10:07:00,36.1,13.5,29.09,SSW,202,8.1,8.1,39,0.00,CLR,,0.00,WeatherDisplay:10.37,2013-11-13 16:07:00,
2013-11-13 10:08:00,36.1,13.5,29.09,SSW,202,8.1,8.1,39,0.00,CLR,,0.00,WeatherDisplay:10.37,2013-11-13 16:08:00,
2013-11-13 10:11:00,37.0,14.3,29.06,SSW,202,4.6,4.6,39,0.00,CLR,,0.00,WeatherDisplay:10.37,2013-11-13 16:11:00,
2013-11-13 10:12:00,37.9,15.1,29.06,WSW,248,8.1,8.1,39,0.00,CLR,,0.00,WeatherDisplay:10.37,2013-11-13 16:12:00,
2013-11-13 10:13:00,38.5,15.6,29.06,WSW,248,6.4,6.4,39,0.00,CLR,,0.00,WeatherDisplay:10.37,2013-11-13 16:13:00,
2013-11-13 10:16:00,37.9,15.1,29.06,SSW,202,12.7,12.7,39,0.00,CLR,,0.00,WeatherDisplay:10.37,2013-11-13 16:16:00,
2013-11-13 10:17:00,37.2,13.9,29.06,WSW,248,12.7,12.7,38,0.00,CLR,,0.00,WeatherDisplay:10.37,2013-11-13 16:17:00,
2013-11-13 10:18:00,36.7,13.4,29.06,SW,225,8.1,8.1,38,0.00,CLR,,0.00,WeatherDisplay:10.37,2013-11-13 16:18:00,
2013-11-13 10:19:00,36.9,13.6,29.06,SW,225,6.9,6.9,38,0.00,CLR,,0.00,WeatherDisplay:10.37,2013-11-13 16:19:00,
2013-11-13 10:21:00,36.9,14.2,29.06,SW,225,3.5,3.5,39,0.00,CLR,,0.00,WeatherDisplay:10.37,2013-11-13 16:21:00,
2013-11-13 10:22:00,37.0,14.3,29.06,SW,225,5.8,5.8,39,0.00,CLR,,0.00,WeatherDisplay:10.37,2013-11-13 16:22:00,
2013-11-13 10:23:00,37.0,14.3,29.06,SSW,202,5.8,5.8,39,0.00,CLR,,0.00,WeatherDisplay:10.37,2013-11-13 16:23:00,
2013-11-13 10:24:00,36.5,13.9,29.06,West,270,8.1,8.1,39,0.00,CLR,,0.00,WeatherDisplay:10.37,2013-11-13 16:24:00,
2013-11-13 10:26:00,36.0,12.8,29.06,SSW,202,9.2,9.2,38,0.00,CLR,,0.00,WeatherDisplay:10.37,2013-11-13 16:26:00,
2013-11-13 10:27:00,36.1,13.5,29.06,NNE,22,5.8,5.8,39,0.00,CLR,,0.00,WeatherDisplay:10.37,2013-11-13 16:27:00,
2013-11-13 10:28:00,36.1,13.5,29.06,SW,225,5.8,5.8,39,0.00,CLR,,0.00,WeatherDisplay:10.37,2013-11-13 16:28:00,
2013-11-13 10:29:00,36.3,13.7,29.06,WSW,248,5.8,5.8,39,0.00,CLR,,0.00,WeatherDisplay:10.37,2013-11-13 16:29:00,
2013-11-13 10:30:00,36.3,13.7,29.06,South,180,5.8,5.8,39,0.00,CLR,,0.00,WeatherDisplay:10.37,2013-11-13 16:30:00,
2013-11-13 10:32:00,36.3,13.7,29.06,SSW,202,3.5,3.5,39,0.00,CLR,,0.00,WeatherDisplay:10.37,2013-11-13 16:32:00,
2013-11-13 10:33:00,36.1,13.5,29.06,WSW,248,5.8,5.8,39,0.00,CLR,,0.00,WeatherDisplay:10.37,2013-11-13 16:33:00,
2013-11-13 10:35:00,36.0,13.4,29.06,SSW,202,6.9,6.9,39,0.00,CLR,,0.00,WeatherDisplay:10.37,2013-11-13 16:35:00,
2013-11-13 10:37:00,36.1,13.5,29.06,South,180,8.1,8.1,39,0.00,CLR,,0.00,WeatherDisplay:10.37,2013-11-13 16:37:00,
2013-11-13 10:38:00,36.3,13.7,29.06,West,270,6.9,6.9,39,0.00,CLR,,0.00,WeatherDisplay:10.37,2013-11-13 16:38:00,
2013-11-13 10:40:00,36.5,13.9,29.03,NW,315,8.1,8.1,39,0.00,CLR,,0.00,WeatherDisplay:10.37,2013-11-13 16:40:00,
2013-11-13 10:42:00,37.0,14.3,29.03,SSW,202,4.6,4.6,39,0.00,CLR,,0.00,WeatherDisplay:10.37,2013-11-13 16:42:00,
2013-11-13 10:43:00,37.2,14.5,29.03,WSW,248,4.6,4.6,39,0.00,CLR,,0.00,WeatherDisplay:10.37,2013-11-13 16:43:00,
2013-11-13 10:44:00,37.2,14.5,29.03,West,270,7.4,7.4,39,0.00,CLR,,0.00,WeatherDisplay:10.37,2013-11-13 16:44:00,
2013-11-13 10:45:00,37.0,14.3,29.03,South,180,6.9,6.9,39,0.00,CLR,,0.00,WeatherDisplay:10.37,2013-11-13 16:45:00,
2013-11-13 10:46:00,36.9,14.2,29.03,NW,315,5.8,6.0,39,0.00,CLR,,0.00,WeatherDisplay:10.37,2013-11-13 16:46:00,
2013-11-13 10:47:00,37.0,14.3,29.03,WNW,292,8.1,8.1,39,0.00,CLR,,0.00,WeatherDisplay:10.37,2013-11-13 16:47:00,
2013-11-13 10:48:00,37.4,14.7,29.03,WNW,292,7.4,7.4,39,0.00,CLR,,0.00,WeatherDisplay:10.37,2013-11-13 16:48:00,
2013-11-13 10:49:00,37.2,14.5,29.03,South,180,6.9,6.9,39,0.00,CLR,,0.00,WeatherDisplay:10.37,2013-11-13 16:49:00,
2013-11-13 10:51:00,37.4,14.7,29.03,West,270,6.4,6.4,39,0.00,CLR,,0.00,WeatherDisplay:10.37,2013-11-13 16:51:00,
2013-11-13 10:52:00,37.0,14.3,29.03,NNE,22,11.5,11.5,39,0.00,CLR,,0.00,WeatherDisplay:10.37,2013-11-13 16:52:00,
2013-11-13 10:53:00,37.0,14.3,29.03,SW,225,6.9,6.9,39,0.00,CLR,,0.00,WeatherDisplay:10.37,2013-11-13 16:53:00,
2013-11-13 10:54:00,37.4,14.7,29.03,SSE,158,8.1,8.1,39,0.00,CLR,,0.00,WeatherDisplay:10.37,2013-11-13 16:54:00,
2013-11-13 10:56:00,37.8,15.0,29.03,SSE,158,5.6,5.6,39,0.00,CLR,,0.00,WeatherDisplay:10.37,2013-11-13 16:56:00,
2013-11-13 10:57:00,37.9,15.1,29.03,South,180,6.9,6.9,39,0.00,CLR,,0.00,WeatherDisplay:10.37,2013-11-13 16:57:00,
2013-11-13 10:58:00,37.9,15.1,29.03,SSW,202,6.9,6.9,39,0.00,CLR,,0.00,WeatherDisplay:10.37,2013-11-13 16:58:00,
2013-11-13 10:59:00,38.1,15.3,29.03,SW,225,6.9,6.9,39,0.00,CLR,,0.00,WeatherDisplay:10.37,2013-11-13 16:59:00,
2013-11-13 11:02:00,38.7,15.8,29.03,North,0,4.6,4.6,39,0.00,CLR,,0.00,WeatherDisplay:10.37,2013-11-13 17:02:00,
2013-11-13 11:03:00,38.8,16.0,29.03,SSW,202,4.6,4.6,39,0.00,CLR,,0.00,WeatherDisplay:10.37,2013-11-13 17:03:00,
2013-11-13 11:04:00,38.8,16.0,29.03,SW,225,5.8,5.8,39,0.00,CLR,,0.00,WeatherDisplay:10.37,2013-11-13 17:04:00,
2013-11-13 11:05:00,39.2,16.3,29.03,SSE,158,5.8,5.8,39,0.00,CLR,,0.00,WeatherDisplay:10.37,2013-11-13 17:05:00,
2013-11-13 11:07:00,39.7,16.8,29.03,WSW,248,4.6,4.6,39,0.00,CLR,,0.00,WeatherDisplay:10.37,2013-11-13 17:07:00,
2013-11-13 11:08:00,39.7,16.8,29.03,SSW,202,3.5,3.5,39,0.00,CLR,,0.00,WeatherDisplay:10.37,2013-11-13 17:08:00,
2013-11-13 11:09:00,39.7,16.8,29.03,SSW,202,12.7,12.7,39,0.00,CLR,,0.00,WeatherDisplay:10.37,2013-11-13 17:09:00,
2013-11-13 11:10:00,39.0,15.5,29.03,WSW,248,12.7,12.7,38,0.00,CLR,,0.00,WeatherDisplay:10.37,2013-11-13 17:10:00,
2013-11-13 11:11:00,38.8,16.0,29.03,WSW,248,10.2,10.2,39,0.00,CLR,,0.00,WeatherDisplay:10.37,2013-11-13 17:11:00,
2013-11-13 11:13:00,39.4,16.4,29.03,West,270,6.2,6.2,39,0.00,CLR,,0.00,WeatherDisplay:10.37,2013-11-13 17:13:00,
2013-11-13 11:14:00,39.4,16.4,29.03,SSW,202,5.8,5.8,39,0.00,CLR,,0.00,WeatherDisplay:10.37,2013-11-13 17:14:00,
2013-11-13 11:15:00,39.6,16.6,29.03,South,180,8.5,8.5,39,0.00,CLR,,0.00,WeatherDisplay:10.37,2013-11-13 17:15:00,
2013-11-13 11:16:00,39.4,15.8,29.03,West,270,9.2,9.2,38,0.00,CLR,,0.00,WeatherDisplay:10.37,2013-11-13 17:16:00,
2013-11-13 11:19:00,39.6,16.6,29.03,NNW,338,6.9,6.9,39,0.00,CLR,,0.00,WeatherDisplay:10.37,2013-11-13 17:19:00,
2013-11-13 11:20:00,40.1,17.1,29.03,SSW,202,3.6,3.6,39,0.00,CLR,,0.00,WeatherDisplay:10.37,2013-11-13 17:20:00,
2013-11-13 11:22:00,40.5,17.4,29.03,NW,315,4.6,4.6,39,0.00,CLR,,0.00,WeatherDisplay:10.37,2013-11-13 17:22:00,
2013-11-13 11:24:00,40.3,17.3,29.03,East,90,6.9,6.9,39,0.00,CLR,,0.00,WeatherDisplay:10.37,2013-11-13 17:24:00,
2013-11-13 11:25:00,40.5,17.4,29.03,SE,135,6.9,6.9,39,0.00,CLR,,0.00,WeatherDisplay:10.37,2013-11-13 17:25:00,
2013-11-13 11:27:00,40.5,17.4,29.03,SSW,202,10.7,10.7,39,0.00,CLR,,0.00,WeatherDisplay:10.37,2013-11-13 17:27:00,
2013-11-13 11:29:00,40.3,17.3,29.03,South,180,5.8,5.8,39,0.00,CLR,,0.00,WeatherDisplay:10.37,2013-11-13 17:29:00,
2013-11-13 11:30:00,40.5,17.4,29.03,SSE,158,5.8,5.8,39,0.00,CLR,,0.00,WeatherDisplay:10.37,2013-11-13 17:30:00,
2013-11-13 11:33:00,40.3,17.3,29.03,South,180,6.9,6.9,39,0.00,CLR,,0.00,WeatherDisplay:10.37,2013-11-13 17:33:00,
2013-11-13 11:34:00,40.3,17.3,29.03,SSW,202,10.4,10.4,39,0.00,CLR,,0.00,WeatherDisplay:10.37,2013-11-13 17:34:00,
2013-11-13 11:35:00,40.3,17.3,29.03,SW,225,5.8,5.8,39,0.00,CLR,,0.00,WeatherDisplay:10.37,2013-11-13 17:35:00,
2013-11-13 11:36:00,40.3,17.3,29.03,WSW,248,8.1,8.1,39,0.00,CLR,,0.00,WeatherDisplay:10.37,2013-11-13 17:36:00,
2013-11-13 11:38:00,40.5,17.4,29.03,SSW,202,6.9,6.9,39,0.00,CLR,,0.00,WeatherDisplay:10.37,2013-11-13 17:38:00,
2013-11-13 11:40:00,40.5,17.4,29.03,South,180,8.1,8.1,39,0.00,CLR,,0.00,WeatherDisplay:10.37,2013-11-13 17:40:00,
2013-11-13 11:41:00,40.6,17.6,29.03,WSW,248,5.8,5.8,39,0.00,CLR,,0.00,WeatherDisplay:10.37,2013-11-13 17:41:00,
2013-11-13 11:43:00,41.2,17.5,29.03,WSW,248,8.1,8.1,38,0.00,CLR,,0.00,WeatherDisplay:10.37,2013-11-13 17:43:00,
2013-11-13 11:45:00,41.2,17.5,29.03,WNW,292,6.9,6.9,38,0.00,CLR,,0.00,WeatherDisplay:10.37,2013-11-13 17:45:00,
2013-11-13 11:46:00,41.0,17.3,29.03,SE,135,8.1,8.1,38,0.00,CLR,,0.00,WeatherDisplay:10.37,2013-11-13 17:46:00,
2013-11-13 11:48:00,41.5,18.4,29.03,SSW,202,6.2,6.2,39,0.00,CLR,,0.00,WeatherDisplay:10.37,2013-11-13 17:48:00,
2013-11-13 11:50:00,41.4,17.6,29.03,SW,225,8.1,8.1,38,0.00,CLR,,0.00,WeatherDisplay:10.37,2013-11-13 17:50:00,
2013-11-13 11:51:00,41.5,18.4,29.03,West,270,8.1,8.1,39,0.00,CLR,,0.00,WeatherDisplay:10.37,2013-11-13 17:51:00,
2013-11-13 11:52:00,41.5,18.4,29.03,WSW,248,6.2,6.2,39,0.00,CLR,,0.00,WeatherDisplay:10.37,2013-11-13 17:52:00,
2013-11-13 11:54:00,41.2,17.5,29.03,SW,225,10.4,10.4,38,0.00,CLR,,0.00,WeatherDisplay:10.37,2013-11-13 17:54:00,
2013-11-13 11:55:00,41.4,17.6,29.00,SSW,202,8.1,8.1,38,0.00,CLR,,0.00,WeatherDisplay:10.37,2013-11-13 17:55:00,
2013-11-13 11:56:00,41.4,17.6,29.00,West,270,6.2,7.4,38,0.00,CLR,,0.00,WeatherDisplay:10.37,2013-11-13 17:56:00,
2013-11-13 11:57:00,41.0,17.3,29.00,NNW,338,10.4,10.4,38,0.00,CLR,,0.00,WeatherDisplay:10.37,2013-11-13 17:57:00,
2013-11-13 11:59:00,41.5,18.4,29.00,SSW,202,4.6,4.6,39,0.00,CLR,,0.00,WeatherDisplay:10.37,2013-11-13 17:59:00,
2013-11-13 12:00:00,41.5,17.8,29.00,SSW,202,7.6,7.6,38,0.00,CLR,,0.00,WeatherDisplay:10.37,2013-11-13 18:00:00,
2013-11-13 12:01:00,41.7,17.9,29.00,SW,225,9.2,9.2,38,0.00,CLR,,0.00,WeatherDisplay:10.37,2013-11-13 18:01:00,
2013-11-13 12:02:00,41.5,17.8,29.00,South,180,8.1,8.1,38,0.00,CLR,,0.00,WeatherDisplay:10.37,2013-11-13 18:02:00,
2013-11-13 12:03:00,41.5,18.4,29.00,WSW,248,8.1,8.1,39,0.00,CLR,,0.00,WeatherDisplay:10.37,2013-11-13 18:03:00,
2013-11-13 12:05:00,41.7,18.5,29.00,South,180,6.9,6.9,39,0.00,CLR,,0.00,WeatherDisplay:10.37,2013-11-13 18:05:00,
2013-11-13 12:06:00,42.1,18.9,29.00,SW,225,6.9,6.9,39,0.00,CLR,,0.00,WeatherDisplay:10.37,2013-11-13 18:06:00,
2013-11-13 12:07:00,42.1,18.9,29.00,NNE,22,3.8,3.8,39,0.00,CLR,,0.00,WeatherDisplay:10.37,2013-11-13 18:07:00,
2013-11-13 12:09:00,42.3,19.0,29.00,SSW,202,6.9,6.9,39,0.00,CLR,,0.00,WeatherDisplay:10.37,2013-11-13 18:09:00,
2013-11-13 12:11:00,42.1,18.9,29.00,South,180,5.8,5.8,39,0.00,CLR,,0.00,WeatherDisplay:10.37,2013-11-13 18:11:00,
2013-11-13 12:12:00,42.3,19.0,29.00,SSW,202,5.8,5.8,39,0.00,CLR,,0.00,WeatherDisplay:10.37,2013-11-13 18:12:00,
2013-11-13 12:13:00,42.3,19.0,29.00,SSW,202,5.8,5.8,39,0.00,CLR,,0.00,WeatherDisplay:10.37,2013-11-13 18:13:00,
2013-11-13 12:14:00,42.3,19.0,29.00,SSW,202,8.1,8.1,39,0.00,CLR,,0.00,WeatherDisplay:10.37,2013-11-13 18:14:00,
2013-11-13 12:16:00,42.4,19.2,29.00,South,180,9.2,9.2,39,0.00,CLR,,0.00,WeatherDisplay:10.37,2013-11-13 18:16:00,
2013-11-13 12:17:00,42.4,19.2,29.00,WSW,248,9.2,9.2,39,0.00,CLR,,0.00,WeatherDisplay:10.37,2013-11-13 18:17:00,
2013-11-13 12:18:00,42.6,19.4,29.00,SSW,202,8.1,8.1,39,0.00,CLR,,0.00,WeatherDisplay:10.37,2013-11-13 18:18:00,
2013-11-13 12:19:00,42.8,18.9,29.00,South,180,8.1,8.1,38,0.00,CLR,,0.00,WeatherDisplay:10.37,2013-11-13 18:19:00,
2013-11-13 12:21:00,43.0,19.1,29.00,SW,225,9.2,9.2,38,0.00,CLR,,0.00,WeatherDisplay:10.37,2013-11-13 18:21:00,
2013-11-13 12:22:00,43.0,19.1,29.00,ENE,68,8.1,8.1,38,0.00,CLR,,0.00,WeatherDisplay:10.37,2013-11-13 18:22:00,
2013-11-13 12:23:00,43.0,19.1,29.00,SSW,202,8.1,8.1,38,0.00,CLR,,0.00,WeatherDisplay:10.37,2013-11-13 18:23:00,
2013-11-13 12:25:00,43.5,19.6,28.97,SSW,202,6.9,6.9,38,0.00,CLR,,0.00,WeatherDisplay:10.37,2013-11-13 18:25:00,
2013-11-13 12:26:00,43.7,19.7,28.97,SW,225,5.8,5.8,38,0.00,CLR,,0.00,WeatherDisplay:10.37,2013-11-13 18:26:00,
2013-11-13 12:27:00,44.1,20.7,28.97,SSW,202,4.6,4.6,39,0.00,CLR,,0.00,WeatherDisplay:10.37,2013-11-13 18:27:00,
2013-11-13 12:28:00,44.1,20.7,28.97,West,270,8.1,8.1,39,0.00,CLR,,0.01,WeatherDisplay:10.37,2013-11-13 18:28:00,
2013-11-13 12:30:00,44.6,20.5,28.97,WNW,292,4.6,4.6,38,0.01,RA,,0.01,WeatherDisplay:10.37,2013-11-13 18:30:00,
2013-11-13 12:31:00,44.6,20.5,28.97,South,180,3.6,3.6,38,0.01,RA,,0.01,WeatherDisplay:10.37,2013-11-13 18:31:00,
2013-11-13 12:32:00,45.0,20.8,28.97,WSW,248,5.8,5.8,38,0.01,RA,,0.01,WeatherDisplay:10.37,2013-11-13 18:32:00,
2013-11-13 12:33:00,44.8,20.7,28.97,SW,225,5.8,5.8,38,0.01,RA,,0.01,WeatherDisplay:10.37,2013-11-13 18:33:00,
2013-11-13 12:34:00,44.8,20.7,28.97,West,270,5.8,5.8,38,0.01,RA,,0.01,WeatherDisplay:10.37,2013-11-13 18:34:00,
2013-11-13 12:36:00,45.1,21.0,28.97,SSW,202,5.8,5.8,38,0.01,RA,,0.01,WeatherDisplay:10.37,2013-11-13 18:36:00,
2013-11-13 12:37:00,45.1,21.0,28.97,NNW,338,9.2,9.2,38,0.01,RA,,0.01,WeatherDisplay:10.37,2013-11-13 18:37:00,
2013-11-13 12:38:00,45.1,21.0,28.97,South,180,9.2,9.2,38,0.01,RA,,0.01,WeatherDisplay:10.37,2013-11-13 18:38:00,
2013-11-13 12:39:00,44.8,20.7,28.97,ESE,112,8.1,8.1,38,0.01,,,0.01,WeatherDisplay:10.37,2013-11-13 18:39:00,
2013-11-13 12:41:00,44.8,20.7,28.97,SSE,158,10.4,10.4,38,0.01,CLR,,0.01,WeatherDisplay:10.37,2013-11-13 18:41:00,
2013-11-13 12:42:00,45.0,20.8,28.97,SW,225,5.8,5.8,38,0.01,CLR,,0.01,WeatherDisplay:10.37,2013-11-13 18:42:00,
2013-11-13 12:43:00,45.1,21.0,28.97,SSE,158,6.4,6.4,38,0.01,CLR,,0.01,WeatherDisplay:10.37,2013-11-13 18:43:00,
2013-11-13 12:44:00,45.1,21.0,28.97,WSW,248,6.9,6.9,38,0.01,CLR,,0.01,WeatherDisplay:10.37,2013-11-13 18:44:00,
2013-11-13 12:46:00,45.0,20.8,28.97,SSW,202,6.2,6.2,38,0.01,CLR,,0.01,WeatherDisplay:10.37,2013-11-13 18:46:00,
2013-11-13 12:47:00,45.1,21.0,28.97,SSW,202,7.6,7.6,38,0.01,CLR,,0.01,WeatherDisplay:10.37,2013-11-13 18:47:00,
2013-11-13 12:48:00,45.0,20.8,28.97,SW,225,8.1,8.1,38,0.01,CLR,,0.01,WeatherDisplay:10.37,2013-11-13 18:48:00,
2013-11-13 12:49:00,45.0,20.8,28.97,SW,225,5.8,5.8,38,0.01,CLR,,0.01,WeatherDisplay:10.37,2013-11-13 18:49:00,
2013-11-13 12:51:00,45.1,21.0,28.97,SSW,202,8.1,8.1,38,0.01,CLR,,0.01,WeatherDisplay:10.37,2013-11-13 18:51:00,
2013-11-13 12:52:00,45.3,21.2,28.97,SSW,202,6.4,6.4,38,0.01,CLR,,0.01,WeatherDisplay:10.37,2013-11-13 18:52:00,
2013-11-13 12:54:00,45.3,21.2,28.97,West,270,4.6,4.6,38,0.01,CLR,,0.01,WeatherDisplay:10.37,2013-11-13 18:54:00,
2013-11-13 12:56:00,45.3,21.2,28.97,SSW,202,10.4,10.4,38,0.01,CLR,,0.01,WeatherDisplay:10.37,2013-11-13 18:56:00,
2013-11-13 12:57:00,45.5,21.3,28.97,SSW,202,6.9,6.9,38,0.01,CLR,,0.01,WeatherDisplay:10.37,2013-11-13 18:57:00,
2013-11-13 12:59:00,45.3,21.2,28.97,WNW,292,5.8,5.8,38,0.01,CLR,,0.01,WeatherDisplay:10.37,2013-11-13 18:59:00,
2013-11-13 13:00:00,45.3,21.2,28.97,SSW,208,6.0,10.0,38,0.00,CLR,,0.01,WeatherDisplay:10.37,2013-11-13 19:00:00,
2013-11-13 13:02:00,45.3,21.2,28.97,SW,225,10.4,10.4,38,0.01,CLR,,0.01,WeatherDisplay:10.37,2013-11-13 19:02:00,
2013-11-13 13:04:00,45.1,21.0,28.97,SSW,202,8.1,8.1,38,0.01,CLR,,0.01,WeatherDisplay:10.37,2013-11-13 19:04:00,
2013-11-13 13:05:00,45.3,21.2,28.97,SSW,202,5.8,5.8,38,0.01,CLR,,0.01,WeatherDisplay:10.37,2013-11-13 19:05:00,
2013-11-13 13:07:00,45.5,21.3,28.97,WSW,248,6.9,6.9,38,0.01,CLR,,0.01,WeatherDisplay:10.37,2013-11-13 19:07:00,
2013-11-13 13:09:00,45.5,21.3,28.97,WSW,248,7.1,7.1,38,0.01,CLR,,0.01,WeatherDisplay:10.37,2013-11-13 19:09:00,
2013-11-13 13:10:00,45.5,21.3,28.94,WSW,248,5.8,5.8,38,0.01,CLR,,0.01,WeatherDisplay:10.37,2013-11-13 19:10:00,
2013-11-13 13:12:00,45.5,21.3,28.94,South,180,5.8,5.8,38,0.01,CLR,,0.01,WeatherDisplay:10.37,2013-11-13 19:12:00,
2013-11-13 13:14:00,45.5,21.3,28.94,WNW,292,5.9,5.9,38,0.01,CLR,,0.01,WeatherDisplay:10.37,2013-11-13 19:14:00,
2013-11-13 13:15:00,45.5,21.3,28.94,NW,315,7.1,7.1,38,0.01,CLR,,0.01,WeatherDisplay:10.37,2013-11-13 19:15:00,
2013-11-13 13:16:00,45.5,21.3,28.94,SSW,202,9.2,9.2,38,0.01,CLR,,0.01,WeatherDisplay:10.37,2013-11-13 19:16:00,
2013-11-13 13:17:00,45.3,21.2,28.94,SSE,158,8.1,8.1,38,0.01,CLR,,0.01,WeatherDisplay:10.37,2013-11-13 19:17:00,
2013-11-13 13:20:00,45.3,21.2,28.94,WSW,248,6.2,6.2,38,0.01,CLR,,0.01,WeatherDisplay:10.37,2013-11-13 19:20:00,
2013-11-13 13:21:00,45.3,21.2,28.94,SW,225,7.8,7.8,38,0.01,CLR,,0.01,WeatherDisplay:10.37,2013-11-13 19:21:00,
2013-11-13 13:22:00,45.3,21.2,28.94,SSW,202,8.1,8.1,38,0.01,CLR,,0.01,WeatherDisplay:10.37,2013-11-13 19:22:00,
2013-11-13 13:25:00,45.5,21.9,28.94,South,180,6.9,6.9,39,0.01,CLR,,0.01,WeatherDisplay:10.37,2013-11-13 19:25:00,
2013-11-13 13:26:00,45.5,21.9,28.94,SSW,202,6.9,6.9,39,0.01,CLR,,0.01,WeatherDisplay:10.37,2013-11-13 19:26:00,
2013-11-13 13:27:00,45.5,21.3,28.94,SSW,202,4.6,4.6,38,0.01,CLR,,0.01,WeatherDisplay:10.37,2013-11-13 19:27:00,
2013-11-13 13:28:00,45.5,21.3,28.94,SSW,202,5.9,5.9,38,0.01,CLR,,0.01,WeatherDisplay:10.37,2013-11-13 19:28:00,
2013-11-13 13:30:00,45.3,21.2,28.94,SSW,202,11.5,11.5,38,0.00,CLR,,0.01,WeatherDisplay:10.37,2013-11-13 19:30:00,
2013-11-13 13:31:00,45.3,21.2,28.94,SW,225,10.9,10.9,38,0.00,CLR,,0.01,WeatherDisplay:10.37,2013-11-13 19:31:00,
2013-11-13 13:32:00,45.1,21.0,28.94,West,270,11.5,11.5,38,0.00,CLR,,0.01,WeatherDisplay:10.37,2013-11-13 19:32:00,
2013-11-13 13:34:00,45.0,20.8,28.94,SSW,202,9.2,9.2,38,0.00,CLR,,0.01,WeatherDisplay:10.37,2013-11-13 19:34:00,
2013-11-13 13:35:00,45.0,20.8,28.94,SSW,202,10.4,10.4,38,0.00,CLR,,0.01,WeatherDisplay:10.37,2013-11-13 19:35:00,
2013-11-13 13:36:00,45.0,20.8,28.94,West,270,7.4,7.4,38,0.00,CLR,,0.01,WeatherDisplay:10.37,2013-11-13 19:36:00,
2013-11-13 13:37:00,44.8,20.7,28.94,SW,225,9.2,9.2,38,0.00,CLR,,0.01,WeatherDisplay:10.37,2013-11-13 19:37:00,
2013-11-13 13:39:00,44.8,20.7,28.94,SE,135,9.2,9.2,38,0.00,CLR,,0.01,WeatherDisplay:10.37,2013-11-13 19:39:00,
2013-11-13 13:40:00,44.8,20.7,28.91,SE,135,8.1,8.1,38,0.00,CLR,,0.01,WeatherDisplay:10.37,2013-11-13 19:40:00,
2013-11-13 13:41:00,44.8,20.7,28.91,SSE,158,6.9,6.9,38,0.00,CLR,,0.01,WeatherDisplay:10.37,2013-11-13 19:41:00,
2013-11-13 13:42:00,44.8,20.7,28.91,WSW,248,6.2,6.2,38,0.00,CLR,,0.01,WeatherDisplay:10.37,2013-11-13 19:42:00,
2013-11-13 13:43:00,45.0,20.8,28.91,SSW,202,12.3,12.3,38,0.00,CLR,,0.01,WeatherDisplay:10.37,2013-11-13 19:43:00,
2013-11-13 13:45:00,44.8,20.7,28.91,East,90,13.8,13.8,38,0.00,CLR,,0.01,WeatherDisplay:10.37,2013-11-13 19:45:00,
2013-11-13 13:46:00,45.0,21.5,28.91,SSW,202,6.9,6.9,39,0.00,CLR,,0.01,WeatherDisplay:10.37,2013-11-13 19:46:00,
2013-11-13 13:48:00,45.1,21.6,28.91,SSE,158,10.4,10.4,39,0.00,CLR,,0.01,WeatherDisplay:10.37,2013-11-13 19:48:00,
2013-11-13 13:51:00,45.1,21.6,28.91,SW,225,9.2,9.2,39,0.00,CLR,,0.01,WeatherDisplay:10.37,2013-11-13 19:51:00,
2013-11-13 13:53:00,45.1,21.6,28.91,NW,315,6.9,6.9,39,0.00,CLR,,0.01,WeatherDisplay:10.37,2013-11-13 19:53:00,
2013-11-13 13:54:00,45.0,21.5,28.91,ESE,112,8.1,8.1,39,0.00,CLR,,0.01,WeatherDisplay:10.37,2013-11-13 19:54:00,
2013-11-13 13:56:00,45.1,21.6,28.91,SSW,202,8.1,8.1,39,0.00,CLR,,0.01,WeatherDisplay:10.37,2013-11-13 19:56:00,
2013-11-13 13:57:00,45.3,21.8,28.91,SW,225,8.1,8.1,39,0.00,CLR,,0.01,WeatherDisplay:10.37,2013-11-13 19:57:00,
2013-11-13 13:58:00,45.3,21.8,28.91,SW,225,6.9,6.9,39,0.00,CLR,,0.01,WeatherDisplay:10.37,2013-11-13 19:58:00,
2013-11-13 13:59:00,45.3,21.8,28.91,West,270,9.2,9.2,39,0.00,CLR,,0.01,WeatherDisplay:10.37,2013-11-13 19:59:00,
2013-11-13 14:01:00,45.3,21.8,28.91,SSW,202,6.9,6.9,39,0.00,CLR,,0.01,WeatherDisplay:10.37,2013-11-13 20:01:00,
2013-11-13 14:02:00,45.3,21.8,28.91,SSW,202,6.9,6.9,39,0.00,CLR,,0.01,WeatherDisplay:10.37,2013-11-13 20:02:00,
2013-11-13 14:04:00,45.1,21.0,28.91,SSW,202,8.1,8.1,38,0.00,CLR,,0.01,WeatherDisplay:10.37,2013-11-13 20:04:00,
2013-11-13 14:06:00,45.0,20.8,28.91,SSE,158,12.7,12.7,38,0.00,CLR,,0.01,WeatherDisplay:10.37,2013-11-13 20:06:00,
2013-11-13 14:07:00,44.8,20.7,28.91,SW,225,12.7,12.7,38,0.00,CLR,,0.01,WeatherDisplay:10.37,2013-11-13 20:07:00,
2013-11-13 14:08:00,44.8,20.7,28.91,SE,135,11.5,11.5,38,0.00,CLR,,0.01,WeatherDisplay:10.37,2013-11-13 20:08:00,
2013-11-13 14:09:00,44.8,21.3,28.91,SSW,202,10.4,10.4,39,0.00,CLR,,0.01,WeatherDisplay:10.37,2013-11-13 20:09:00,
2013-11-13 14:12:00,45.1,21.6,28.91,NE,45,6.0,6.0,39,0.00,CLR,,0.01,WeatherDisplay:10.37,2013-11-13 20:12:00,
2013-11-13 14:13:00,45.3,21.8,28.91,ENE,68,5.8,5.8,39,0.00,CLR,,0.01,WeatherDisplay:10.37,2013-11-13 20:13:00,
2013-11-13 14:14:00,45.3,21.8,28.91,SSE,158,5.8,5.8,39,0.00,CLR,,0.01,WeatherDisplay:10.37,2013-11-13 20:14:00,
2013-11-13 14:18:00,45.3,21.8,28.91,South,180,8.1,8.1,39,0.00,CLR,,0.01,WeatherDisplay:10.37,2013-11-13 20:18:00,
2013-11-13 14:19:00,45.3,21.8,28.91,WSW,248,9.2,9.2,39,0.00,CLR,,0.01,WeatherDisplay:10.37,2013-11-13 20:19:00,
2013-11-13 14:20:00,45.3,21.8,28.91,SSW,202,9.2,9.2,39,0.00,CLR,,0.01,WeatherDisplay:10.37,2013-11-13 20:20:00,
2013-11-13 14:23:00,45.5,21.9,28.91,NNW,338,8.1,8.1,39,0.00,CLR,,0.01,WeatherDisplay:10.37,2013-11-13 20:23:00,
2013-11-13 14:24:00,45.5,21.9,28.91,SSW,202,10.4,10.4,39,0.00,CLR,,0.01,WeatherDisplay:10.37,2013-11-13 20:24:00,
2013-11-13 14:25:00,45.5,21.9,28.91,South,180,6.0,6.0,39,0.00,CLR,,0.01,WeatherDisplay:10.37,2013-11-13 20:25:00,
2013-11-13 14:28:00,45.7,22.1,28.91,South,180,10.4,10.4,39,0.00,CLR,,0.01,WeatherDisplay:10.37,2013-11-13 20:28:00,
2013-11-13 14:29:00,45.7,22.1,28.91,SSW,202,6.9,6.9,39,0.00,CLR,,0.01,WeatherDisplay:10.37,2013-11-13 20:29:00,
2013-11-13 14:30:00,45.7,21.5,28.91,South,180,9.4,9.4,38,0.00,CLR,,0.01,WeatherDisplay:10.37,2013-11-13 20:30:00,
2013-11-13 14:34:00,45.3,21.2,28.91,NE,45,6.9,7.1,38,0.00,CLR,,0.01,WeatherDisplay:10.37,2013-11-13 20:34:00,
2013-11-13 14:35:00,45.5,21.3,28.91,ENE,68,10.4,10.4,38,0.00,CLR,,0.01,WeatherDisplay:10.37,2013-11-13 20:35:00,
2013-11-13 14:39:00,45.9,22.3,28.91,SE,135,13.2,13.2,39,0.00,CLR,,0.01,WeatherDisplay:10.37,2013-11-13 20:39:00,
2013-11-13 14:40:00,45.9,22.3,28.90,SSW,201,5.0,14.0,39,0.00,CLR,,0.01,WeatherDisplay:10.37,2013-11-13 20:40:00,
2013-11-13 14:41:00,45.7,21.5,28.88,SSW,202,8.1,8.1,38,0.00,CLR,,0.01,WeatherDisplay:10.37,2013-11-13 20:41:00,
2013-11-13 14:44:00,45.7,21.5,28.88,SW,225,11.5,11.5,38,0.00,CLR,,0.01,WeatherDisplay:10.37,2013-11-13 20:44:00,
2013-11-13 14:45:00,45.7,21.5,28.88,WNW,292,12.7,12.7,38,0.00,CLR,,0.01,WeatherDisplay:10.37,2013-11-13 20:45:00,
2013-11-13 14:46:00,45.5,21.3,28.88,SW,225,17.3,17.3,38,0.00,CLR,,0.01,WeatherDisplay:10.37,2013-11-13 20:46:00,
2013-11-13 14:49:00,45.7,22.1,28.88,East,90,5.8,5.8,39,0.00,CLR,,0.01,WeatherDisplay:10.37,2013-11-13 20:49:00,
2013-11-13 14:50:00,45.7,21.5,28.88,North,0,13.8,13.8,38,0.00,CLR,,0.01,WeatherDisplay:10.37,2013-11-13 20:50:00,
2013-11-13 14:52:00,45.9,22.3,28.88,SSE,158,6.9,6.9,39,0.00,CLR,,0.01,WeatherDisplay:10.37,2013-11-13 20:52:00,
2013-11-13 14:54:00,46.0,22.4,28.88,WSW,248,8.1,8.1,39,0.00,CLR,,0.01,WeatherDisplay:10.37,2013-11-13 20:54:00,
2013-11-13 14:55:00,46.0,21.8,28.88,WSW,248,8.1,8.1,38,0.00,CLR,,0.01,WeatherDisplay:10.37,2013-11-13 20:55:00,
2013-11-13 14:56:00,45.7,21.5,28.88,SSW,202,8.1,8.1,38,0.00,CLR,,0.01,WeatherDisplay:10.37,2013-11-13 20:56:00,
2013-11-13 14:57:00,45.7,21.5,28.88,SSW,202,8.1,8.1,38,0.00,CLR,,0.01,WeatherDisplay:10.37,2013-11-13 20:57:00,
2013-11-13 14:59:00,45.5,21.3,28.88,SW,225,9.2,9.2,38,0.00,CLR,,0.01,WeatherDisplay:10.37,2013-11-13 20:59:00,
2013-11-13 15:00:00,45.5,21.9,28.88,South,180,8.1,8.1,39,0.00,CLR,,0.01,WeatherDisplay:10.37,2013-11-13 21:00:00,
2013-11-13 15:01:00,45.5,21.9,28.88,South,180,6.9,6.9,39,0.00,CLR,,0.01,WeatherDisplay:10.37,2013-11-13 21:01:00,
2013-11-13 15:02:00,45.5,21.3,28.88,WSW,248,8.1,8.1,38,0.00,CLR,,0.01,WeatherDisplay:10.37,2013-11-13 21:02:00,
2013-11-13 15:05:00,45.1,21.0,28.88,SW,225,10.4,10.4,38,0.00,CLR,,0.01,WeatherDisplay:10.37,2013-11-13 21:05:00,
2013-11-13 15:06:00,45.1,21.0,28.88,South,180,9.2,9.2,38,0.00,CLR,,0.01,WeatherDisplay:10.37,2013-11-13 21:06:00,
2013-11-13 15:07:00,45.1,21.0,28.88,WSW,248,9.2,9.2,38,0.00,CLR,,0.01,WeatherDisplay:10.37,2013-11-13 21:07:00,
2013-11-13 15:08:00,45.1,21.0,28.88,SW,225,8.1,8.1,38,0.00,CLR,,0.01,WeatherDisplay:10.37,2013-11-13 21:08:00,
2013-11-13 15:10:00,45.0,20.8,28.88,South,180,6.9,6.9,38,0.00,CLR,,0.01,WeatherDisplay:10.37,2013-11-13 21:10:00,
2013-11-13 15:11:00,45.1,21.6,28.88,SSW,202,5.8,5.8,39,0.00,CLR,,0.01,WeatherDisplay:10.37,2013-11-13 21:11:00,
2013-11-13 15:12:00,45.1,21.0,28.88,SW,225,7.8,7.8,38,0.00,CLR,,0.01,WeatherDisplay:10.37,2013-11-13 21:12:00,
2013-11-13 15:13:00,45.1,21.0,28.88,SSW,202,8.1,8.1,38,0.00,CLR,,0.01,WeatherDisplay:10.37,2013-11-13 21:13:00,
2013-11-13 15:15:00,45.0,21.5,28.88,South,180,10.4,10.4,39,0.00,CLR,,0.01,WeatherDisplay:10.37,2013-11-13 21:15:00,
2013-11-13 15:16:00,44.8,20.7,28.88,SW,225,6.2,6.7,38,0.00,CLR,,0.01,WeatherDisplay:10.37,2013-11-13 21:16:00,
2013-11-13 15:17:00,44.8,20.7,28.88,South,180,8.1,8.1,38,0.00,CLR,,0.01,WeatherDisplay:10.37,2013-11-13 21:17:00,
2013-11-13 15:18:00,44.8,20.7,28.88,South,180,10.4,10.4,38,0.00,CLR,,0.01,WeatherDisplay:10.37,2013-11-13 21:18:00,
2013-11-13 15:20:00,44.8,21.3,28.88,WSW,248,5.8,5.8,39,0.00,CLR,,0.01,WeatherDisplay:10.37,2013-11-13 21:20:00,
2013-11-13 15:21:00,45.0,21.5,28.88,SW,225,8.1,8.1,39,0.00,CLR,,0.01,WeatherDisplay:10.37,2013-11-13 21:21:00,
2013-11-13 15:22:00,45.0,21.5,28.88,South,180,6.0,6.0,39,0.00,CLR,,0.01,WeatherDisplay:10.37,2013-11-13 21:22:00,
2013-11-13 15:23:00,44.6,21.1,28.88,SSW,202,6.9,6.9,39,0.00,CLR,,0.01,WeatherDisplay:10.37,2013-11-13 21:23:00,
2013-11-13 15:26:00,44.6,20.5,28.85,SSW,202,5.9,5.9,38,0.00,CLR,,0.01,WeatherDisplay:10.37,2013-11-13 21:26:00,
2013-11-13 15:27:00,44.6,21.1,28.85,SSW,202,5.8,5.8,39,0.00,CLR,,0.01,WeatherDisplay:10.37,2013-11-13 21:27:00,
2013-11-13 15:28:00,44.6,21.1,28.85,West,270,5.8,5.8,39,0.00,CLR,,0.01,WeatherDisplay:10.37,2013-11-13 21:28:00,
2013-11-13 15:29:00,44.8,21.3,28.85,SSE,158,5.8,5.8,39,0.00,CLR,,0.01,WeatherDisplay:10.37,2013-11-13 21:29:00,
2013-11-13 15:31:00,44.6,21.1,28.85,WSW,248,8.1,8.1,39,0.00,CLR,,0.01,WeatherDisplay:10.37,2013-11-13 21:31:00,
2013-11-13 15:32:00,44.6,21.1,28.85,SSW,202,6.9,6.9,39,0.00,CLR,,0.01,WeatherDisplay:10.37,2013-11-13 21:32:00,
2013-11-13 15:33:00,44.6,21.1,28.85,SW,225,5.8,5.8,39,0.00,CLR,,0.01,WeatherDisplay:10.37,2013-11-13 21:33:00,
2013-11-13 15:34:00,44.6,21.1,28.85,WSW,248,4.6,4.6,39,0.00,CLR,,0.01,WeatherDisplay:10.37,2013-11-13 21:34:00,
2013-11-13 15:36:00,44.4,21.0,28.85,SSE,158,6.9,6.9,39,0.00,CLR,,0.01,WeatherDisplay:10.37,2013-11-13 21:36:00,
2013-11-13 15:37:00,44.2,20.8,28.85,SSW,202,8.1,8.1,39,0.00,CLR,,0.01,WeatherDisplay:10.37,2013-11-13 21:37:00,
2013-11-13 15:39:00,44.1,20.7,28.85,SSW,202,11.5,11.5,39,0.00,CLR,,0.01,WeatherDisplay:10.37,2013-11-13 21:39:00,
2013-11-13 15:41:00,44.1,20.7,28.85,SSW,202,5.8,5.8,39,0.00,CLR,,0.01,WeatherDisplay:10.37,2013-11-13 21:41:00,
2013-11-13 15:42:00,44.1,20.7,28.85,NW,315,5.6,5.6,39,0.00,CLR,,0.01,WeatherDisplay:10.37,2013-11-13 21:42:00,
2013-11-13 15:44:00,44.1,20.7,28.85,WSW,248,8.1,8.1,39,0.00,CLR,,0.01,WeatherDisplay:10.37,2013-11-13 21:44:00,
2013-11-13 15:45:00,44.1,20.7,28.85,SSE,158,4.6,4.6,39,0.00,CLR,,0.01,WeatherDisplay:10.37,2013-11-13 21:45:00,
2013-11-13 15:47:00,43.9,20.5,28.85,SSW,202,8.1,8.1,39,0.00,CLR,,0.01,WeatherDisplay:10.37,2013-11-13 21:47:00,
2013-11-13 15:48:00,43.7,20.3,28.85,SSW,202,8.1,8.1,39,0.00,CLR,,0.01,WeatherDisplay:10.37,2013-11-13 21:48:00,
2013-11-13 15:49:00,43.9,20.5,28.85,WNW,292,6.9,6.9,39,0.00,CLR,,0.01,WeatherDisplay:10.37,2013-11-13 21:49:00,
2013-11-13 15:50:00,43.9,20.5,28.85,WNW,292,3.5,3.5,39,0.00,CLR,,0.01,WeatherDisplay:10.37,2013-11-13 21:50:00,
2013-11-13 15:52:00,44.1,20.7,28.85,SSW,202,4.6,4.6,39,0.00,CLR,,0.01,WeatherDisplay:10.37,2013-11-13 21:52:00,
2013-11-13 15:53:00,44.1,20.7,28.85,South,180,4.6,4.6,39,0.00,CLR,,0.01,WeatherDisplay:10.37,2013-11-13 21:53:00,
2013-11-13 15:55:00,43.9,20.5,28.85,SSE,158,7.4,7.4,39,0.00,CLR,,0.01,WeatherDisplay:10.37,2013-11-13 21:55:00,
2013-11-13 15:57:00,43.3,20.0,28.85,SSW,202,8.5,8.5,39,0.00,CLR,,0.01,WeatherDisplay:10.37,2013-11-13 21:57:00,
2013-11-13 15:58:00,43.3,20.0,28.85,WNW,292,7.1,7.1,39,0.00,CLR,,0.01,WeatherDisplay:10.37,2013-11-13 21:58:00,
2013-11-13 16:00:00,43.3,20.0,28.85,WNW,292,3.6,3.6,39,0.00,CLR,,0.01,WeatherDisplay:10.37,2013-11-13 22:00:00,
2013-11-13 16:01:00,43.3,20.0,28.85,WSW,248,6.9,6.9,39,0.00,CLR,,0.01,WeatherDisplay:10.37,2013-11-13 22:01:00,
2013-11-13 16:03:00,43.0,19.7,28.85,WSW,248,6.9,6.9,39,0.00,CLR,,0.01,WeatherDisplay:10.37,2013-11-13 22:03:00,
2013-11-13 16:04:00,43.0,19.7,28.85,WSW,248,6.9,6.9,39,0.00,CLR,,0.01,WeatherDisplay:10.37,2013-11-13 22:04:00,
2013-11-13 16:05:00,42.8,19.5,28.85,SW,225,5.8,5.8,39,0.00,CLR,,0.01,WeatherDisplay:10.37,2013-11-13 22:05:00,
2013-11-13 16:06:00,42.6,20.0,28.85,South,180,5.8,5.8,40,0.00,CLR,,0.01,WeatherDisplay:10.37,2013-11-13 22:06:00,
2013-11-13 16:07:00,42.4,19.8,28.85,SW,225,5.8,5.8,40,0.00,CLR,,0.01,WeatherDisplay:10.37,2013-11-13 22:07:00,
2013-11-13 16:08:00,42.4,19.8,28.85,SSW,202,6.0,6.0,40,0.00,CLR,,0.01,WeatherDisplay:10.37,2013-11-13 22:08:00,
2013-11-13 16:09:00,42.1,19.5,28.85,WSW,248,6.4,6.4,40,0.00,CLR,,0.01,WeatherDisplay:10.37,2013-11-13 22:09:00,
2013-11-13 16:11:00,42.1,19.5,28.82,SSW,202,8.1,8.1,40,0.00,CLR,,0.01,WeatherDisplay:10.37,2013-11-13 22:11:00,
2013-11-13 16:12:00,41.7,19.1,28.82,ESE,112,4.6,4.6,40,0.00,CLR,,0.01,WeatherDisplay:10.37,2013-11-13 22:12:00,
2013-11-13 16:14:00,41.5,19.0,28.82,SSW,202,5.8,5.8,40,0.00,CLR,,0.01,WeatherDisplay:10.37,2013-11-13 22:14:00,
2013-11-13 16:16:00,41.2,18.7,28.82,WSW,248,4.9,4.9,40,0.00,CLR,,0.01,WeatherDisplay:10.37,2013-11-13 22:16:00,
2013-11-13 16:17:00,41.0,18.5,28.82,ESE,112,8.1,8.1,40,0.00,CLR,,0.01,WeatherDisplay:10.37,2013-11-13 22:17:00,
2013-11-13 16:19:00,40.8,18.9,28.82,West,270,3.5,3.5,41,0.00,CLR,,0.01,WeatherDisplay:10.37,2013-11-13 22:19:00,
2013-11-13 16:21:00,40.6,18.7,28.82,South,180,5.8,5.8,41,0.00,CLR,,0.01,WeatherDisplay:10.37,2013-11-13 22:21:00,
2013-11-13 16:22:00,40.6,18.7,28.82,SW,225,6.9,6.9,41,0.00,CLR,,0.01,WeatherDisplay:10.37,2013-11-13 22:22:00,
2013-11-13 16:23:00,40.6,18.7,28.82,SSE,158,8.1,8.1,41,0.00,CLR,,0.01,WeatherDisplay:10.37,2013-11-13 22:23:00,
2013-11-13 16:24:00,40.6,19.3,28.85,SSW,202,3.5,3.5,42,0.00,CLR,,0.01,WeatherDisplay:10.37,2013-11-13 22:24:00,
2013-11-13 16:25:00,40.6,18.7,28.83,SSW,207,3.0,8.0,41,0.00,CLR,,0.01,WeatherDisplay:10.37,2013-11-13 22:25:00,
2013-11-13 16:27:00,40.5,19.1,28.85,SSW,202,5.8,5.8,42,0.00,CLR,,0.01,WeatherDisplay:10.37,2013-11-13 22:27:00,
2013-11-13 16:28:00,40.5,19.1,28.85,WSW,248,5.8,5.8,42,0.00,CLR,,0.01,WeatherDisplay:10.37,2013-11-13 22:28:00,
2013-11-13 16:29:00,40.5,19.1,28.85,SSE,158,4.6,4.6,42,0.00,CLR,,0.01,WeatherDisplay:10.37,2013-11-13 22:29:00,
2013-11-13 16:30:00,40.3,19.0,28.85,SSW,202,3.5,3.5,42,0.00,CLR,,0.01,WeatherDisplay:10.37,2013-11-13 22:30:00,
2013-11-13 16:33:00,40.3,19.0,28.85,South,180,5.8,5.8,42,0.00,CLR,,0.01,WeatherDisplay:10.37,2013-11-13 22:33:00,
2013-11-13 16:34:00,40.1,18.8,28.85,SW,225,4.6,4.6,42,0.00,CLR,,0.01,WeatherDisplay:10.37,2013-11-13 22:34:00,
2013-11-13 16:35:00,40.1,18.8,28.85,West,270,2.9,2.9,42,0.00,CLR,,0.01,WeatherDisplay:10.37,2013-11-13 22:35:00,
2013-11-13 16:38:00,40.1,18.8,28.85,SSW,202,5.8,5.8,42,0.00,CLR,,0.01,WeatherDisplay:10.37,2013-11-13 22:38:00,
2013-11-13 16:39:00,39.9,18.7,28.85,NNE,22,4.7,4.7,42,0.00,CLR,,0.01,WeatherDisplay:10.37,2013-11-13 22:39:00,
2013-11-13 16:40:00,39.9,18.7,28.85,SSW,213,3.0,10.0,42,0.00,CLR,,0.01,WeatherDisplay:10.37,2013-11-13 22:40:00,
2013-11-13 16:43:00,39.7,18.5,28.85,SSW,202,6.9,6.9,42,0.00,CLR,,0.01,WeatherDisplay:10.37,2013-11-13 22:43:00,
2013-11-13 16:44:00,39.7,18.5,28.85,South,180,6.9,6.9,42,0.00,CLR,,0.01,WeatherDisplay:10.37,2013-11-13 22:44:00,
2013-11-13 16:45:00,39.7,18.5,28.85,West,270,6.2,6.2,42,0.00,CLR,,0.01,WeatherDisplay:10.37,2013-11-13 22:45:00,
2013-11-13 16:46:00,39.7,18.5,28.85,SSE,158,5.8,5.8,42,0.00,CLR,,0.01,WeatherDisplay:10.37,2013-11-13 22:46:00,
2013-11-13 16:48:00,39.7,18.5,28.85,WSW,248,11.5,11.5,42,0.00,CLR,,0.01,WeatherDisplay:10.37,2013-11-13 22:48:00,
2013-11-13 16:49:00,39.7,18.5,28.85,WSW,248,5.8,5.8,42,0.00,CLR,,0.01,WeatherDisplay:10.37,2013-11-13 22:49:00,
2013-11-13 16:50:00,39.7,18.5,28.85,SW,219,3.0,12.0,42,0.00,CLR,,0.01,WeatherDisplay:10.37,2013-11-13 22:50:00,
2013-11-13 16:52:00,39.6,18.3,28.85,SSW,202,4.6,4.6,42,0.00,CLR,,0.01,WeatherDisplay:10.37,2013-11-13 22:52:00,
2013-11-13 16:54:00,39.4,18.2,28.85,SSW,202,6.9,6.9,42,0.00,CLR,,0.01,WeatherDisplay:10.37,2013-11-13 22:54:00,
2013-11-13 16:55:00,39.4,18.2,28.82,South,180,6.9,6.9,42,0.00,CLR,,0.01,WeatherDisplay:10.37,2013-11-13 22:55:00,
2013-11-13 16:57:00,39.4,18.2,28.82,SSW,202,9.2,9.2,42,0.00,CLR,,0.01,WeatherDisplay:10.37,2013-11-13 22:57:00,
2013-11-13 16:59:00,39.4,18.2,28.82,West,270,5.9,5.9,42,0.00,CLR,,0.01,WeatherDisplay:10.37,2013-11-13 22:59:00,
2013-11-13 17:00:00,39.2,18.0,28.82,South,180,5.8,5.8,42,0.00,CLR,,0.01,WeatherDisplay:10.37,2013-11-13 23:00:00,
2013-11-13 17:01:00,39.2,18.0,28.82,West,270,5.8,5.8,42,0.00,CLR,,0.01,WeatherDisplay:10.37,2013-11-13 23:01:00,
2013-11-13 17:02:00,39.0,18.4,28.82,SSW,202,5.8,5.8,43,0.00,CLR,,0.01,WeatherDisplay:10.37,2013-11-13 23:02:00,
2013-11-13 17:04:00,38.8,18.2,28.82,South,180,5.9,5.9,43,0.00,CLR,,0.01,WeatherDisplay:10.37,2013-11-13 23:04:00,
2013-11-13 17:05:00,38.8,18.2,28.82,SSW,202,6.9,6.9,43,0.00,CLR,,0.01,WeatherDisplay:10.37,2013-11-13 23:05:00,
2013-11-13 17:06:00,38.8,18.2,28.82,SSE,158,6.9,6.9,43,0.00,CLR,,0.01,WeatherDisplay:10.37,2013-11-13 23:06:00,
2013-11-13 17:08:00,38.8,18.2,28.82,South,180,7.1,7.1,43,0.00,CLR,,0.01,WeatherDisplay:10.37,2013-11-13 23:08:00,
2013-11-13 17:09:00,38.8,18.2,28.82,SSW,202,6.9,6.9,43,0.00,CLR,,0.01,WeatherDisplay:10.37,2013-11-13 23:09:00,
2013-11-13 17:10:00,38.8,18.2,28.85,SSW,202,5.4,5.4,43,0.00,CLR,,0.01,WeatherDisplay:10.37,2013-11-13 23:10:00,
2013-11-13 17:11:00,38.7,18.1,28.85,SSW,202,5.8,5.8,43,0.00,CLR,,0.01,WeatherDisplay:10.37,2013-11-13 23:11:00,
2013-11-13 17:13:00,38.7,18.1,28.85,SW,225,4.6,4.6,43,0.00,CLR,,0.01,WeatherDisplay:10.37,2013-11-13 23:13:00,
2013-11-13 17:14:00,38.7,18.1,28.85,South,180,5.8,5.8,43,0.00,CLR,,0.01,WeatherDisplay:10.37,2013-11-13 23:14:00,
2013-11-13 17:15:00,38.7,18.1,28.85,SSE,158,8.1,8.1,43,0.00,CLR,,0.01,WeatherDisplay:10.37,2013-11-13 23:15:00,
2013-11-13 17:16:00,38.7,18.1,28.85,SW,225,8.1,8.1,43,0.00,CLR,,0.01,WeatherDisplay:10.37,2013-11-13 23:16:00,
2013-11-13 17:19:00,38.7,18.1,28.85,South,180,5.8,5.8,43,0.00,CLR,,0.01,WeatherDisplay:10.37,2013-11-13 23:19:00,
2013-11-13 17:20:00,38.7,18.1,28.85,SSW,207,5.0,9.0,43,0.00,CLR,,0.01,WeatherDisplay:10.37,2013-11-13 23:20:00,
2013-11-13 17:21:00,38.7,18.1,28.85,NW,315,5.8,5.8,43,0.00,CLR,,0.01,WeatherDisplay:10.37,2013-11-13 23:21:00,
2013-11-13 17:24:00,38.7,17.5,28.85,SSE,158,6.9,6.9,42,0.00,CLR,,0.01,WeatherDisplay:10.37,2013-11-13 23:24:00,
2013-11-13 17:25:00,38.7,18.1,28.85,WNW,292,4.6,4.6,43,0.00,CLR,,0.01,WeatherDisplay:10.37,2013-11-13 23:25:00,
2013-11-13 17:26:00,38.5,17.9,28.85,South,180,5.8,5.8,43,0.00,CLR,,0.01,WeatherDisplay:10.37,2013-11-13 23:26:00,
2013-11-13 17:27:00,38.7,17.5,28.85,WSW,248,5.8,5.8,42,0.00,CLR,,0.01,WeatherDisplay:10.37,2013-11-13 23:27:00,
2013-11-13 17:29:00,38.5,17.3,28.85,SW,225,6.9,6.9,42,0.00,CLR,,0.01,WeatherDisplay:10.37,2013-11-13 23:29:00,
2013-11-13 17:30:00,38.5,17.3,28.85,SSE,158,6.9,6.9,42,0.00,CLR,,0.01,WeatherDisplay:10.37,2013-11-13 23:30:00,
2013-11-13 17:31:00,38.3,17.2,28.85,East,90,6.9,6.9,42,0.00,CLR,,0.01,WeatherDisplay:10.37,2013-11-13 23:31:00,
2013-11-13 17:32:00,38.3,17.2,28.85,WSW,248,5.8,5.8,42,0.00,CLR,,0.01,WeatherDisplay:10.37,2013-11-13 23:32:00,
2013-11-13 17:34:00,38.1,17.0,28.85,SSW,202,5.8,5.8,42,0.00,CLR,,0.01,WeatherDisplay:10.37,2013-11-13 23:34:00,
2013-11-13 17:36:00,38.3,17.2,28.85,SSW,202,5.8,5.8,42,0.00,CLR,,0.01,WeatherDisplay:10.37,2013-11-13 23:36:00,
2013-11-13 17:37:00,38.3,17.2,28.85,East,90,8.1,8.1,42,0.00,CLR,,0.01,WeatherDisplay:10.37,2013-11-13 23:37:00,
2013-11-13 17:40:00,38.3,17.2,28.85,West,270,8.1,8.1,42,0.00,CLR,,0.01,WeatherDisplay:10.37,2013-11-13 23:40:00,
2013-11-13 17:41:00,38.3,17.2,28.85,SW,225,4.6,4.6,42,0.00,CLR,,0.01,WeatherDisplay:10.37,2013-11-13 23:41:00,
2013-11-13 17:42:00,38.3,17.2,28.85,SW,225,8.7,8.7,42,0.00,CLR,,0.01,WeatherDisplay:10.37,2013-11-13 23:42:00,
2013-11-13 17:45:00,38.1,16.5,28.85,SW,225,6.0,6.0,41,0.00,CLR,,0.01,WeatherDisplay:10.37,2013-11-13 23:45:00,
2013-11-13 17:46:00,38.1,16.5,28.85,SW,225,6.9,6.9,41,0.00,CLR,,0.01,WeatherDisplay:10.37,2013-11-13 23:46:00,
2013-11-13 17:47:00,38.1,16.5,28.85,SSW,202,5.8,5.8,41,0.00,CLR,,0.01,WeatherDisplay:10.37,2013-11-13 23:47:00,
2013-11-13 17:48:00,38.1,16.5,28.85,West,270,6.4,6.4,41,0.00,CLR,,0.01,WeatherDisplay:10.37,2013-11-13 23:48:00,
2013-11-13 17:50:00,38.1,16.5,28.85,SSW,202,8.1,8.1,41,0.00,CLR,,0.01,WeatherDisplay:10.37,2013-11-13 23:50:00,
2013-11-13 17:51:00,38.1,16.5,28.85,South,180,9.2,9.2,41,0.00,CLR,,0.01,WeatherDisplay:10.37,2013-11-13 23:51:00,
2013-11-13 17:52:00,38.1,16.5,28.85,WSW,248,5.8,5.8,41,0.00,CLR,,0.01,WeatherDisplay:10.37,2013-11-13 23:52:00,
2013-11-13 17:53:00,38.1,16.5,28.85,SSW,202,8.1,8.1,41,0.00,CLR,,0.01,WeatherDisplay:10.37,2013-11-13 23:53:00,
2013-11-13 17:55:00,38.1,16.5,28.85,SW,225,8.1,8.1,41,0.00,CLR,,0.01,WeatherDisplay:10.37,2013-11-13 23:55:00,
2013-11-13 17:56:00,38.3,16.1,28.85,SSW,202,9.2,9.2,40,0.00,CLR,,0.01,WeatherDisplay:10.37,2013-11-13 23:56:00,
2013-11-13 17:57:00,38.3,16.1,28.85,SSW,202,9.2,9.2,40,0.00,CLR,,0.01,WeatherDisplay:10.37,2013-11-13 23:57:00,
2013-11-13 17:58:00,38.1,15.9,28.85,SW,225,8.1,8.1,40,0.00,CLR,,0.01,WeatherDisplay:10.37,2013-11-13 23:58:00,
2013-11-13 18:00:00,38.1,15.9,28.85,SSW,202,6.9,6.9,40,0.00,CLR,,0.01,WeatherDisplay:10.37,2013-11-14 00:00:00,
2013-11-13 18:01:00,38.1,15.9,28.85,South,180,5.8,5.8,40,0.00,CLR,,0.01,WeatherDisplay:10.37,2013-11-14 00:01:00,
2013-11-13 18:02:00,38.1,15.9,28.85,SW,225,5.8,5.8,40,0.00,CLR,,0.01,WeatherDisplay:10.37,2013-11-14 00:02:00,
2013-11-13 18:03:00,37.9,15.7,28.85,SSW,202,5.8,5.8,40,0.00,CLR,,0.01,WeatherDisplay:10.37,2013-11-14 00:03:00,
2013-11-13 18:04:00,37.9,15.7,28.85,SW,225,5.8,5.8,40,0.00,CLR,,0.01,WeatherDisplay:10.37,2013-11-14 00:04:00,
2013-11-13 18:05:00,38.1,15.9,28.85,SSW,202,6.9,6.9,40,0.00,CLR,,0.01,WeatherDisplay:10.37,2013-11-14 00:05:00,
2013-11-13 18:07:00,38.1,15.9,28.85,NNW,338,8.1,8.1,40,0.00,CLR,,0.01,WeatherDisplay:10.37,2013-11-14 00:07:00,
2013-11-13 18:08:00,38.1,15.9,28.85,SSW,202,4.7,4.7,40,0.00,CLR,,0.01,WeatherDisplay:10.37,2013-11-14 00:08:00,
2013-11-13 18:09:00,37.9,15.7,28.85,SSW,202,4.9,4.9,40,0.00,CLR,,0.01,WeatherDisplay:10.37,2013-11-14 00:09:00,
2013-11-13 18:10:00,37.8,15.6,28.85,WSW,248,4.6,4.6,40,0.00,CLR,,0.01,WeatherDisplay:10.37,2013-11-14 00:10:00,
2013-11-13 18:12:00,37.8,15.6,28.85,NW,315,3.6,3.6,40,0.00,CLR,,0.01,WeatherDisplay:10.37,2013-11-14 00:12:00,
2013-11-13 18:13:00,37.8,15.6,28.85,WSW,248,7.4,7.4,40,0.00,CLR,,0.01,WeatherDisplay:10.37,2013-11-14 00:13:00,
2013-11-13 18:15:00,37.9,15.1,28.85,SSW,202,10.4,10.4,39,0.00,CLR,,0.01,WeatherDisplay:10.37,2013-11-14 00:15:00,
2013-11-13 18:16:00,37.9,15.7,28.85,SSW,202,6.9,6.9,40,0.00,CLR,,0.01,WeatherDisplay:10.37,2013-11-14 00:16:00,
2013-11-13 18:17:00,37.9,15.1,28.85,SSW,202,7.6,7.6,39,0.00,CLR,,0.01,WeatherDisplay:10.37,2013-11-14 00:17:00,
2013-11-13 18:18:00,37.9,15.1,28.85,SSW,202,9.2,9.2,39,0.00,CLR,,0.01,WeatherDisplay:10.37,2013-11-14 00:18:00,
2013-11-13 18:19:00,37.9,15.1,28.85,SW,225,5.8,5.8,39,0.00,CLR,,0.01,WeatherDisplay:10.37,2013-11-14 00:19:00,
2013-11-13 18:20:00,37.9,15.1,28.85,SSW,202,5.8,5.8,39,0.00,CLR,,0.01,WeatherDisplay:10.37,2013-11-14 00:20:00,
2013-11-13 18:21:00,37.9,15.1,28.85,WSW,248,5.8,5.8,39,0.00,CLR,,0.01,WeatherDisplay:10.37,2013-11-14 00:21:00,
2013-11-13 18:22:00,37.9,15.1,28.85,SSW,202,5.8,5.8,39,0.00,CLR,,0.01,WeatherDisplay:10.37,2013-11-14 00:22:00,
2013-11-13 18:23:00,37.9,15.1,28.85,SSE,158,5.8,5.8,39,0.00,CLR,,0.01,WeatherDisplay:10.37,2013-11-14 00:23:00,
2013-11-13 18:24:00,37.9,15.1,28.85,SSW,202,4.6,4.6,39,0.00,CLR,,0.01,WeatherDisplay:10.37,2013-11-14 00:24:00,
2013-11-13 18:25:00,37.8,15.0,28.88,WSW,248,6.9,6.9,39,0.00,CLR,,0.01,WeatherDisplay:10.37,2013-11-14 00:25:00,
2013-11-13 18:26:00,37.8,15.0,28.88,South,180,8.1,8.1,39,0.00,CLR,,0.01,WeatherDisplay:10.37,2013-11-14 00:26:00,
2013-11-13 18:27:00,37.9,15.1,28.88,South,180,8.1,8.1,39,0.00,CLR,,0.01,WeatherDisplay:10.37,2013-11-14 00:27:00,
2013-11-13 18:28:00,37.9,15.1,28.88,SSW,202,5.8,5.8,39,0.00,CLR,,0.01,WeatherDisplay:10.37,2013-11-14 00:28:00,
2013-11-13 18:29:00,37.9,15.1,28.88,West,270,5.8,5.8,39,0.00,CLR,,0.01,WeatherDisplay:10.37,2013-11-14 00:29:00,
2013-11-13 18:30:00,37.9,15.1,28.88,SSW,202,5.8,5.8,39,0.00,CLR,,0.01,WeatherDisplay:10.37,2013-11-14 00:30:00,
2013-11-13 18:32:00,37.9,15.1,28.88,SSW,202,5.9,5.9,39,0.00,CLR,,0.01,WeatherDisplay:10.37,2013-11-14 00:32:00,
2013-11-13 18:33:00,37.9,15.1,28.88,WSW,248,5.9,5.9,39,0.00,CLR,,0.01,WeatherDisplay:10.37,2013-11-14 00:33:00,
2013-11-13 18:34:00,37.9,15.1,28.88,SE,135,5.8,5.8,39,0.00,CLR,,0.01,WeatherDisplay:10.37,2013-11-14 00:34:00,
2013-11-13 18:36:00,37.9,15.1,28.88,WNW,292,4.6,4.6,39,0.00,CLR,,0.01,WeatherDisplay:10.37,2013-11-14 00:36:00,
2013-11-13 18:37:00,37.8,15.0,28.88,WSW,248,8.5,8.5,39,0.00,CLR,,0.01,WeatherDisplay:10.37,2013-11-14 00:37:00,
2013-11-13 18:38:00,37.9,15.1,28.88,WSW,248,8.1,8.1,39,0.00,CLR,,0.01,WeatherDisplay:10.37,2013-11-14 00:38:00,
2013-11-13 18:39:00,37.8,15.0,28.88,SW,225,6.9,6.9,39,0.00,CLR,,0.01,WeatherDisplay:10.37,2013-11-14 00:39:00,
2013-11-13 18:41:00,37.8,15.0,28.85,WNW,292,4.6,4.6,39,0.00,CLR,,0.01,WeatherDisplay:10.37,2013-11-14 00:41:00,
2013-11-13 18:42:00,37.8,15.0,28.85,SSW,202,8.1,8.1,39,0.00,CLR,,0.01,WeatherDisplay:10.37,2013-11-14 00:42:00,
2013-11-13 18:43:00,37.8,15.0,28.85,SSW,202,5.8,5.8,39,0.00,CLR,,0.01,WeatherDisplay:10.37,2013-11-14 00:43:00,
2013-11-13 18:44:00,37.8,15.0,28.85,SSW,202,4.6,4.6,39,0.00,CLR,,0.01,WeatherDisplay:10.37,2013-11-14 00:44:00,
2013-11-13 18:45:00,37.8,15.0,28.85,SSW,202,4.6,4.6,39,0.00,CLR,,0.01,WeatherDisplay:10.37,2013-11-14 00:45:00,
2013-11-13 18:46:00,37.8,14.4,28.85,South,180,4.7,4.7,38,0.00,CLR,,0.01,WeatherDisplay:10.37,2013-11-14 00:46:00,
2013-11-13 18:47:00,37.6,14.8,28.85,West,270,4.6,4.6,39,0.00,CLR,,0.01,WeatherDisplay:10.37,2013-11-14 00:47:00,
2013-11-13 18:48:00,37.6,14.8,28.85,South,180,3.5,3.5,39,0.00,CLR,,0.01,WeatherDisplay:10.37,2013-11-14 00:48:00,
2013-11-13 18:49:00,37.6,14.8,28.85,WSW,248,3.5,3.5,39,0.00,CLR,,0.01,WeatherDisplay:10.37,2013-11-14 00:49:00,
2013-11-13 18:50:00,37.4,14.7,28.85,WSW,248,5.8,5.8,39,0.00,CLR,,0.01,WeatherDisplay:10.37,2013-11-14 00:50:00,
2013-11-13 18:51:00,37.4,14.1,28.85,South,180,5.8,5.8,38,0.00,CLR,,0.01,WeatherDisplay:10.37,2013-11-14 00:51:00,
2013-11-13 18:53:00,37.4,14.7,28.85,SSW,202,4.6,4.6,39,0.00,CLR,,0.01,WeatherDisplay:10.37,2013-11-14 00:53:00,
2013-11-13 18:54:00,37.4,14.1,28.85,SSW,202,9.2,9.2,38,0.00,CLR,,0.01,WeatherDisplay:10.37,2013-11-14 00:54:00,
2013-11-13 18:55:00,37.6,14.2,28.85,South,180,6.9,6.9,38,0.00,CLR,,0.01,WeatherDisplay:10.37,2013-11-14 00:55:00,
2013-11-13 18:56:00,37.6,14.2,28.85,SSW,202,5.8,5.8,38,0.00,CLR,,0.01,WeatherDisplay:10.37,2013-11-14 00:56:00,
2013-11-13 18:58:00,37.4,14.7,28.85,SSW,202,3.6,3.6,39,0.00,CLR,,0.01,WeatherDisplay:10.37,2013-11-14 00:58:00,
2013-11-13 18:59:00,37.4,14.7,28.85,South,180,5.8,5.8,39,0.00,CLR,,0.01,WeatherDisplay:10.37,2013-11-14 00:59:00,
2013-11-13 19:00:00,37.2,14.5,28.85,South,180,4.7,4.7,39,0.00,CLR,,0.01,WeatherDisplay:10.37,2013-11-14 01:00:00,
2013-11-13 19:01:00,37.4,14.1,28.85,South,180,5.8,5.8,38,0.00,CLR,,0.01,WeatherDisplay:10.37,2013-11-14 01:01:00,
2013-11-13 19:03:00,37.4,14.1,28.85,SSW,202,4.7,4.7,38,0.00,CLR,,0.01,WeatherDisplay:10.37,2013-11-14 01:03:00,
2013-11-13 19:05:00,37.4,14.1,28.85,SSW,202,8.1,8.1,38,0.00,CLR,,0.01,WeatherDisplay:10.37,2013-11-14 01:05:00,
2013-11-13 19:06:00,37.4,14.1,28.85,SSW,202,4.6,4.6,38,0.00,CLR,,0.01,WeatherDisplay:10.37,2013-11-14 01:06:00,
2013-11-13 19:08:00,37.4,14.1,28.85,SSW,202,5.8,5.8,38,0.00,CLR,,0.01,WeatherDisplay:10.37,2013-11-14 01:08:00,
2013-11-13 19:10:00,37.4,14.1,28.85,SSW,202,5.8,5.8,38,0.00,CLR,,0.01,WeatherDisplay:10.37,2013-11-14 01:10:00,
2013-11-13 19:11:00,37.4,14.1,28.85,South,180,5.8,5.8,38,0.00,CLR,,0.01,WeatherDisplay:10.37,2013-11-14 01:11:00,
2013-11-13 19:12:00,37.4,14.1,28.85,WSW,248,4.6,4.6,38,0.00,CLR,,0.01,WeatherDisplay:10.37,2013-11-14 01:12:00,
2013-11-13 19:13:00,37.4,14.1,28.85,SW,225,4.6,4.6,38,0.00,CLR,,0.01,WeatherDisplay:10.37,2013-11-14 01:13:00,
2013-11-13 19:16:00,37.2,13.9,28.85,WSW,248,9.2,9.2,38,0.00,CLR,,0.01,WeatherDisplay:10.37,2013-11-14 01:16:00,
2013-11-13 19:17:00,37.2,13.9,28.85,South,180,4.6,4.6,38,0.00,CLR,,0.01,WeatherDisplay:10.37,2013-11-14 01:17:00,
2013-11-13 19:18:00,37.2,14.5,28.85,WSW,248,4.6,4.6,39,0.00,CLR,,0.01,WeatherDisplay:10.37,2013-11-14 01:18:00,
2013-11-13 19:21:00,37.0,14.3,28.85,South,180,4.6,4.6,39,0.00,CLR,,0.01,WeatherDisplay:10.37,2013-11-14 01:21:00,
2013-11-13 19:22:00,37.0,14.3,28.85,SSW,202,8.1,8.1,39,0.00,CLR,,0.01,WeatherDisplay:10.37,2013-11-14 01:22:00,
2013-11-13 19:23:00,37.2,13.9,28.85,SSW,202,8.1,8.1,38,0.00,CLR,,0.01,WeatherDisplay:10.37,2013-11-14 01:23:00,
2013-11-13 19:26:00,37.2,13.9,28.85,SSW,202,8.5,8.5,38,0.00,CLR,,0.01,WeatherDisplay:10.37,2013-11-14 01:26:00,
2013-11-13 19:27:00,37.4,13.5,28.85,SSW,202,8.1,8.1,37,0.00,CLR,,0.01,WeatherDisplay:10.37,2013-11-14 01:27:00,
2013-11-13 19:28:00,37.4,13.5,28.85,SSW,202,8.1,8.1,37,0.00,CLR,,0.01,WeatherDisplay:10.37,2013-11-14 01:28:00,
2013-11-13 19:29:00,37.4,13.5,28.85,South,180,6.9,6.9,37,0.00,CLR,,0.01,WeatherDisplay:10.37,2013-11-14 01:29:00,
2013-11-13 19:31:00,37.4,13.5,28.85,SSW,202,4.6,4.6,37,0.00,CLR,,0.01,WeatherDisplay:10.37,2013-11-14 01:31:00,
2013-11-13 19:33:00,37.2,13.9,28.85,South,180,5.8,5.8,38,0.00,CLR,,0.01,WeatherDisplay:10.37,2013-11-14 01:33:00,
2013-11-13 19:34:00,37.2,13.9,28.85,SW,225,4.9,4.9,38,0.00,CLR,,0.01,WeatherDisplay:10.37,2013-11-14 01:34:00,
2013-11-13 19:37:00,37.0,13.7,28.85,West,270,4.6,4.6,38,0.00,CLR,,0.01,WeatherDisplay:10.37,2013-11-14 01:37:00,
2013-11-13 19:38:00,37.0,13.1,28.85,SSW,202,5.8,5.8,37,0.00,CLR,,0.01,WeatherDisplay:10.37,2013-11-14 01:38:00,
2013-11-13 19:39:00,37.0,13.7,28.85,SW,225,4.6,4.6,38,0.00,CLR,,0.01,WeatherDisplay:10.37,2013-11-14 01:39:00,
2013-11-13 19:42:00,36.9,13.6,28.82,West,270,5.8,5.8,38,0.00,CLR,,0.01,WeatherDisplay:10.37,2013-11-14 01:42:00,
2013-11-13 19:43:00,36.9,13.0,28.82,SSW,202,5.8,5.8,37,0.00,CLR,,0.01,WeatherDisplay:10.37,2013-11-14 01:43:00,
2013-11-13 19:44:00,36.9,13.0,28.82,WSW,248,5.8,5.8,37,0.00,CLR,,0.01,WeatherDisplay:10.37,2013-11-14 01:44:00,
2013-11-13 19:47:00,37.4,13.5,28.82,SSW,202,6.9,6.9,37,0.00,CLR,,0.01,WeatherDisplay:10.37,2013-11-14 01:47:00,
2013-11-13 19:48:00,37.4,12.8,28.82,NNW,338,5.8,5.8,36,0.00,CLR,,0.01,WeatherDisplay:10.37,2013-11-14 01:48:00,
2013-11-13 19:49:00,37.4,12.8,28.82,WNW,292,5.8,5.8,36,0.00,CLR,,0.01,WeatherDisplay:10.37,2013-11-14 01:49:00,
2013-11-13 19:50:00,37.4,13.5,28.82,NE,45,6.0,6.0,37,0.00,CLR,,0.01,WeatherDisplay:10.37,2013-11-14 01:50:00,
2013-11-13 19:52:00,37.4,12.8,28.82,SW,225,4.6,4.6,36,0.00,CLR,,0.01,WeatherDisplay:10.37,2013-11-14 01:52:00,
2013-11-13 19:53:00,37.4,12.8,28.82,WSW,248,4.9,4.9,36,0.00,CLR,,0.01,WeatherDisplay:10.37,2013-11-14 01:53:00,
2013-11-13 19:54:00,37.4,12.8,28.82,South,180,5.8,5.8,36,0.00,CLR,,0.01,WeatherDisplay:10.37,2013-11-14 01:54:00,
2013-11-13 19:55:00,37.6,13.0,28.82,WSW,248,7.4,7.4,36,0.00,CLR,,0.01,WeatherDisplay:10.37,2013-11-14 01:55:00,
2013-11-13 19:57:00,37.4,12.8,28.82,SSW,202,3.5,3.5,36,0.00,CLR,,0.01,WeatherDisplay:10.37,2013-11-14 01:57:00,
2013-11-13 19:59:00,37.4,12.8,28.82,WNW,292,9.2,9.2,36,0.00,CLR,,0.01,WeatherDisplay:10.37,2013-11-14 01:59:00,
2013-11-13 20:00:00,37.6,13.0,28.82,South,180,10.4,10.4,36,0.00,CLR,,0.01,WeatherDisplay:10.37,2013-11-14 02:00:00,
2013-11-13 20:02:00,37.8,13.2,28.82,SW,225,6.9,6.9,36,0.00,CLR,,0.01,WeatherDisplay:10.37,2013-11-14 02:02:00,
2013-11-13 20:04:00,37.8,13.2,28.82,NW,315,4.3,4.3,36,0.00,CLR,,0.01,WeatherDisplay:10.37,2013-11-14 02:04:00,
2013-11-13 20:05:00,37.8,13.2,28.82,SSW,202,3.5,3.8,36,0.00,CLR,,0.01,WeatherDisplay:10.37,2013-11-14 02:05:00,
2013-11-13 20:06:00,37.8,13.2,28.82,SW,225,5.8,5.8,36,0.00,CLR,,0.01,WeatherDisplay:10.37,2013-11-14 02:06:00,
2013-11-13 20:08:00,37.6,13.0,28.82,SSW,202,5.8,5.8,36,0.00,CLR,,0.01,WeatherDisplay:10.37,2013-11-14 02:08:00,
2013-11-13 20:09:00,37.8,12.5,28.85,WSW,248,5.8,5.8,35,0.00,CLR,,0.01,WeatherDisplay:10.37,2013-11-14 02:09:00,
2013-11-13 20:10:00,37.6,12.4,28.83,SW,214,5.0,6.0,35,0.00,CLR,,0.01,WeatherDisplay:10.37,2013-11-14 02:10:00,
2013-11-13 20:11:00,37.8,12.5,28.85,SSW,202,4.6,4.6,35,0.00,CLR,,0.01,WeatherDisplay:10.37,2013-11-14 02:11:00,
2013-11-13 20:13:00,37.8,12.5,28.85,SSW,202,4.6,4.6,35,0.00,CLR,,0.01,WeatherDisplay:10.37,2013-11-14 02:13:00,
2013-11-13 20:14:00,37.8,12.5,28.85,SSW,202,4.6,4.6,35,0.00,CLR,,0.01,WeatherDisplay:10.37,2013-11-14 02:14:00,
2013-11-13 20:15:00,37.6,12.4,28.85,SW,225,5.4,5.4,35,0.00,CLR,,0.01,WeatherDisplay:10.37,2013-11-14 02:15:00,
2013-11-13 20:16:00,37.6,12.4,28.85,West,270,5.8,5.8,35,0.00,CLR,,0.01,WeatherDisplay:10.37,2013-11-14 02:16:00,
2013-11-13 20:17:00,37.6,12.4,28.85,SSW,202,4.6,4.6,35,0.00,CLR,,0.01,WeatherDisplay:10.37,2013-11-14 02:17:00,
2013-11-13 20:19:00,37.6,12.4,28.85,SW,225,4.6,4.6,35,0.00,CLR,,0.01,WeatherDisplay:10.37,2013-11-14 02:19:00,
2013-11-13 20:20:00,37.6,12.4,28.85,NW,315,4.6,4.6,35,0.00,CLR,,0.01,WeatherDisplay:10.37,2013-11-14 02:20:00,
2013-11-13 20:21:00,37.8,12.5,28.85,SSW,202,6.9,6.9,35,0.00,CLR,,0.01,WeatherDisplay:10.37,2013-11-14 02:21:00,
2013-11-13 20:22:00,37.9,12.7,28.85,SSE,158,9.2,9.2,35,0.00,CLR,,0.01,WeatherDisplay:10.37,2013-11-14 02:22:00,
2013-11-13 20:24:00,37.9,12.7,28.82,South,180,4.6,4.6,35,0.00,CLR,,0.01,WeatherDisplay:10.37,2013-11-14 02:24:00,
2013-11-13 20:25:00,37.9,12.7,28.82,South,180,3.5,3.5,35,0.00,CLR,,0.01,WeatherDisplay:10.37,2013-11-14 02:25:00,
2013-11-13 20:27:00,37.9,12.7,28.82,SSW,202,8.1,8.1,35,0.00,CLR,,0.01,WeatherDisplay:10.37,2013-11-14 02:27:00,
2013-11-13 20:30:00,37.7,12.5,28.82,SW,235,2.0,8.0,35,0.00,CLR,,0.01,WeatherDisplay:10.37,2013-11-14 02:30:00,
2013-11-13 20:31:00,37.8,12.5,28.82,SSE,158,3.6,3.6,35,0.00,CLR,,0.01,WeatherDisplay:10.37,2013-11-14 02:31:00,
2013-11-13 20:32:00,37.8,12.5,28.82,SSW,202,4.6,4.6,35,0.00,CLR,,0.01,WeatherDisplay:10.37,2013-11-14 02:32:00,
2013-11-13 20:33:00,37.8,12.5,28.82,SSW,202,5.8,5.8,35,0.00,CLR,,0.01,WeatherDisplay:10.37,2013-11-14 02:33:00,
2013-11-13 20:35:00,37.8,12.5,28.82,South,180,5.9,5.9,35,0.00,CLR,,0.01,WeatherDisplay:10.37,2013-11-14 02:35:00,
2013-11-13 20:36:00,37.9,12.0,28.82,SSW,202,5.8,5.8,34,0.00,CLR,,0.01,WeatherDisplay:10.37,2013-11-14 02:36:00,
2013-11-13 20:37:00,37.9,12.0,28.82,SSW,202,6.9,6.9,34,0.00,CLR,,0.01,WeatherDisplay:10.37,2013-11-14 02:37:00,
2013-11-13 20:38:00,37.9,12.0,28.82,SSW,202,9.2,9.2,34,0.00,CLR,,0.01,WeatherDisplay:10.37,2013-11-14 02:38:00,
2013-11-13 20:40:00,37.9,12.0,28.82,SW,225,4.6,4.6,34,0.00,CLR,,0.01,WeatherDisplay:10.37,2013-11-14 02:40:00,
2013-11-13 20:41:00,37.8,12.5,28.82,NNE,22,3.5,3.5,35,0.00,CLR,,0.01,WeatherDisplay:10.37,2013-11-14 02:41:00,
2013-11-13 20:42:00,37.8,11.9,28.82,SW,225,5.8,5.8,34,0.00,CLR,,0.01,WeatherDisplay:10.37,2013-11-14 02:42:00,
2013-11-13 20:43:00,37.8,11.9,28.82,SSW,202,5.8,5.8,34,0.00,CLR,,0.01,WeatherDisplay:10.37,2013-11-14 02:43:00,
2013-11-13 20:45:00,37.8,11.9,28.82,North,0,4.6,4.6,34,0.00,CLR,,0.01,WeatherDisplay:10.37,2013-11-14 02:45:00,
2013-11-13 20:46:00,37.8,11.9,28.82,SSW,202,4.6,4.6,34,0.00,CLR,,0.01,WeatherDisplay:10.37,2013-11-14 02:46:00,
2013-11-13 20:47:00,37.6,11.7,28.82,SSW,202,8.1,8.1,34,0.00,CLR,,0.01,WeatherDisplay:10.37,2013-11-14 02:47:00,
2013-11-13 20:48:00,37.8,11.9,28.82,SW,225,8.1,8.1,34,0.00,CLR,,0.01,WeatherDisplay:10.37,2013-11-14 02:48:00,
2013-11-13 20:50:00,37.9,12.0,28.82,South,180,4.6,4.6,34,0.00,CLR,,0.01,WeatherDisplay:10.37,2013-11-14 02:50:00,
2013-11-13 20:51:00,37.8,11.9,28.82,WSW,248,4.6,4.6,34,0.00,CLR,,0.01,WeatherDisplay:10.37,2013-11-14 02:51:00,
2013-11-13 20:52:00,37.8,11.9,28.82,ESE,112,4.6,4.6,34,0.00,CLR,,0.01,WeatherDisplay:10.37,2013-11-14 02:52:00,
2013-11-13 20:53:00,37.6,11.7,28.82,WSW,248,4.6,4.6,34,0.00,CLR,,0.01,WeatherDisplay:10.37,2013-11-14 02:53:00,
2013-11-13 20:54:00,37.6,11.7,28.82,WSW,248,4.6,4.6,34,0.00,CLR,,0.01,WeatherDisplay:10.37,2013-11-14 02:54:00,
2013-11-13 20:55:00,37.6,11.7,28.82,North,0,3.5,3.5,34,0.00,CLR,,0.01,WeatherDisplay:10.37,2013-11-14 02:55:00,
2013-11-13 20:56:00,37.6,11.7,28.82,SSE,158,3.5,3.5,34,0.00,CLR,,0.01,WeatherDisplay:10.37,2013-11-14 02:56:00,
2013-11-13 20:57:00,37.6,11.7,28.82,SW,225,7.6,7.6,34,0.00,CLR,,0.01,WeatherDisplay:10.37,2013-11-14 02:57:00,
2013-11-13 20:59:00,37.6,11.7,28.82,SE,135,8.1,8.1,34,0.00,CLR,,0.01,WeatherDisplay:10.37,2013-11-14 02:59:00,
2013-11-13 21:00:00,37.6,11.7,28.82,South,180,4.9,4.9,34,0.00,CLR,,0.01,WeatherDisplay:10.37,2013-11-14 03:00:00,
2013-11-13 21:02:00,37.8,11.9,28.82,SE,135,8.1,8.1,34,0.00,CLR,,0.01,WeatherDisplay:10.37,2013-11-14 03:02:00,
2013-11-13 21:03:00,37.8,11.9,28.82,WSW,248,3.5,3.5,34,0.00,CLR,,0.01,WeatherDisplay:10.37,2013-11-14 03:03:00,
2013-11-13 21:05:00,37.7,11.8,28.82,SSW,212,3.0,9.0,34,0.00,CLR,,0.01,WeatherDisplay:10.37,2013-11-14 03:05:00,
2013-11-13 21:06:00,37.8,11.9,28.82,West,270,3.8,4.0,34,0.00,CLR,,0.01,WeatherDisplay:10.37,2013-11-14 03:06:00,
2013-11-13 21:07:00,37.8,11.9,28.82,SSW,202,5.8,5.8,34,0.00,CLR,,0.01,WeatherDisplay:10.37,2013-11-14 03:07:00,
2013-11-13 21:08:00,37.8,11.9,28.82,SW,225,5.8,5.8,34,0.00,CLR,,0.01,WeatherDisplay:10.37,2013-11-14 03:08:00,
2013-11-13 21:10:00,37.9,12.0,28.79,SW,225,8.1,8.1,34,0.00,CLR,,0.01,WeatherDisplay:10.37,2013-11-14 03:10:00,
2013-11-13 21:11:00,37.9,12.0,28.79,South,180,5.8,5.8,34,0.00,CLR,,0.01,WeatherDisplay:10.37,2013-11-14 03:11:00,
2013-11-13 21:12:00,37.9,12.0,28.79,SSW,202,6.0,6.0,34,0.00,CLR,,0.01,WeatherDisplay:10.37,2013-11-14 03:12:00,
2013-11-13 21:13:00,37.9,12.0,28.79,SW,225,6.0,6.0,34,0.00,CLR,,0.01,WeatherDisplay:10.37,2013-11-14 03:13:00,
2013-11-13 21:15:00,37.8,11.9,28.79,SSW,202,3.5,3.5,34,0.00,CLR,,0.01,WeatherDisplay:10.37,2013-11-14 03:15:00,
2013-11-13 21:17:00,37.8,11.9,28.79,SSW,202,6.9,6.9,34,0.00,CLR,,0.01,WeatherDisplay:10.37,2013-11-14 03:17:00,
2013-11-13 21:18:00,37.6,11.7,28.79,NNW,338,5.8,5.8,34,0.00,CLR,,0.01,WeatherDisplay:10.37,2013-11-14 03:18:00,
2013-11-13 21:20:00,37.6,11.7,28.79,SSE,158,3.5,3.5,34,0.00,CLR,,0.01,WeatherDisplay:10.37,2013-11-14 03:20:00,
2013-11-13 21:21:00,37.6,11.7,28.79,SSW,202,6.9,6.9,34,0.00,CLR,,0.01,WeatherDisplay:10.37,2013-11-14 03:21:00,
2013-11-13 21:22:00,37.6,11.7,28.79,South,180,6.9,6.9,34,0.00,CLR,,0.01,WeatherDisplay:10.37,2013-11-14 03:22:00,
2013-11-13 21:23:00,37.4,11.5,28.79,South,180,8.7,8.7,34,0.00,CLR,,0.01,WeatherDisplay:10.37,2013-11-14 03:23:00,
2013-11-13 21:24:00,37.4,11.5,28.79,WSW,248,9.2,9.2,34,0.00,CLR,,0.01,WeatherDisplay:10.37,2013-11-14 03:24:00,
2013-11-13 21:25:00,37.6,11.7,28.79,SE,135,6.9,6.9,34,0.00,CLR,,0.01,WeatherDisplay:10.37,2013-11-14 03:25:00,
2013-11-13 21:26:00,37.6,11.7,28.79,North,0,5.8,5.8,34,0.00,CLR,,0.01,WeatherDisplay:10.37,2013-11-14 03:26:00,
2013-11-13 21:27:00,37.6,11.7,28.79,NW,315,2.3,2.3,34,0.00,CLR,,0.01,WeatherDisplay:10.37,2013-11-14 03:27:00,
2013-11-13 21:28:00,37.4,11.5,28.79,SW,225,2.6,2.6,34,0.00,CLR,,0.01,WeatherDisplay:10.37,2013-11-14 03:28:00,
2013-11-13 21:29:00,37.4,11.5,28.79,NE,45,5.8,5.8,34,0.00,CLR,,0.01,WeatherDisplay:10.37,2013-11-14 03:29:00,
2013-11-13 21:30:00,37.4,11.5,28.79,SSW,202,5.8,5.8,34,0.00,CLR,,0.01,WeatherDisplay:10.37,2013-11-14 03:30:00,
2013-11-13 21:31:00,37.4,11.5,28.79,WSW,248,8.1,8.1,34,0.00,CLR,,0.01,WeatherDisplay:10.37,2013-11-14 03:31:00,
2013-11-13 21:32:00,37.4,11.5,28.79,WSW,248,4.6,4.6,34,0.00,CLR,,0.01,WeatherDisplay:10.37,2013-11-14 03:32:00,
2013-11-13 21:33:00,37.4,11.5,28.79,WSW,248,4.6,4.6,34,0.00,CLR,,0.01,WeatherDisplay:10.37,2013-11-14 03:33:00,
2013-11-13 21:34:00,37.4,11.5,28.79,WSW,248,5.8,5.8,34,0.00,CLR,,0.01,WeatherDisplay:10.37,2013-11-14 03:34:00,
2013-11-13 21:36:00,37.4,11.5,28.79,SW,225,6.9,6.9,34,0.00,CLR,,0.01,WeatherDisplay:10.37,2013-11-14 03:36:00,
2013-11-13 21:37:00,37.4,11.5,28.79,SW,225,5.8,5.8,34,0.00,CLR,,0.01,WeatherDisplay:10.37,2013-11-14 03:37:00,
2013-11-13 21:38:00,37.4,11.5,28.79,WSW,248,4.6,4.6,34,0.00,CLR,,0.01,WeatherDisplay:10.37,2013-11-14 03:38:00,
2013-11-13 21:39:00,37.4,11.5,28.79,South,180,5.4,5.4,34,0.00,CLR,,0.01,WeatherDisplay:10.37,2013-11-14 03:39:00,
2013-11-13 21:40:00,37.4,11.5,28.79,NNE,22,5.4,5.4,34,0.00,CLR,,0.01,WeatherDisplay:10.37,2013-11-14 03:40:00,
2013-11-13 21:41:00,37.4,11.5,28.79,NNE,22,5.4,5.4,34,0.00,CLR,,0.01,WeatherDisplay:10.37,2013-11-14 03:41:00,
2013-11-13 21:42:00,37.4,11.5,28.79,NNE,22,5.4,5.4,34,0.00,CLR,,0.01,WeatherDisplay:10.37,2013-11-14 03:42:00,
2013-11-13 21:43:00,37.4,11.5,28.79,NNE,22,5.4,5.4,34,0.00,CLR,,0.01,WeatherDisplay:10.37,2013-11-14 03:43:00,
2013-11-13 21:44:00,37.4,11.5,28.79,NNE,22,5.4,5.4,34,0.00,CLR,,0.01,WeatherDisplay:10.37,2013-11-14 03:44:00,
2013-11-13 21:47:00,37.4,11.5,28.79,SSE,158,9.2,9.2,34,0.00,CLR,,0.01,WeatherDisplay:10.37,2013-11-14 03:47:00,
2013-11-13 21:48:00,37.4,11.5,28.79,SSW,202,5.8,5.8,34,0.00,CLR,,0.01,WeatherDisplay:10.37,2013-11-14 03:48:00,
2013-11-13 21:50:00,37.4,11.5,28.79,SW,225,3.5,3.5,34,0.00,CLR,,0.01,WeatherDisplay:10.37,2013-11-14 03:50:00,
2013-11-13 21:52:00,37.4,11.5,28.79,SW,225,3.5,3.5,34,0.00,CLR,,0.01,WeatherDisplay:10.37,2013-11-14 03:52:00,
2013-11-13 21:53:00,37.4,11.5,28.79,SW,225,3.6,5.6,34,0.00,CLR,,0.01,WeatherDisplay:10.37,2013-11-14 03:53:00,
2013-11-13 21:55:00,37.4,11.5,28.79,SSW,202,4.6,4.6,34,0.00,CLR,,0.01,WeatherDisplay:10.37,2013-11-14 03:55:00,
2013-11-13 21:57:00,37.4,11.5,28.79,SSW,202,4.6,4.6,34,0.00,CLR,,0.01,WeatherDisplay:10.37,2013-11-14 03:57:00,
2013-11-13 21:58:00,37.4,11.5,28.79,SSW,202,4.6,4.6,34,0.00,CLR,,0.01,WeatherDisplay:10.37,2013-11-14 03:58:00,
2013-11-13 22:01:00,37.4,11.5,28.79,SW,225,4.0,4.3,34,0.00,CLR,,0.01,WeatherDisplay:10.37,2013-11-14 04:01:00,
2013-11-13 22:03:00,37.4,11.5,28.79,West,270,4.6,4.6,34,0.00,CLR,,0.01,WeatherDisplay:10.37,2013-11-14 04:03:00,
2013-11-13 22:04:00,37.4,11.5,28.79,WNW,292,4.6,4.6,34,0.00,CLR,,0.01,WeatherDisplay:10.37,2013-11-14 04:04:00,
2013-11-13 22:07:00,37.2,12.0,28.79,SSW,202,3.5,3.5,35,0.00,CLR,,0.01,WeatherDisplay:10.37,2013-11-14 04:07:00,
2013-11-13 22:08:00,37.2,12.0,28.79,SSE,158,5.9,5.9,35,0.00,CLR,,0.01,WeatherDisplay:10.37,2013-11-14 04:08:00,
2013-11-13 22:09:00,37.4,11.5,28.79,SSW,202,5.8,5.8,34,0.00,CLR,,0.01,WeatherDisplay:10.37,2013-11-14 04:09:00,
2013-11-13 22:10:00,37.4,11.5,28.79,SW,225,5.8,5.8,34,0.00,CLR,,0.01,WeatherDisplay:10.37,2013-11-14 04:10:00,
2013-11-13 22:12:00,37.4,11.5,28.79,WSW,248,4.6,4.6,34,0.00,CLR,,0.01,WeatherDisplay:10.37,2013-11-14 04:12:00,
2013-11-13 22:13:00,37.4,11.5,28.79,NW,315,6.0,6.0,34,0.00,CLR,,0.01,WeatherDisplay:10.37,2013-11-14 04:13:00,
2013-11-13 22:14:00,37.4,11.5,28.79,SSW,202,5.8,5.8,34,0.00,CLR,,0.01,WeatherDisplay:10.37,2013-11-14 04:14:00,
2013-11-13 22:15:00,37.4,11.5,28.79,SW,225,5.6,5.6,34,0.00,CLR,,0.01,WeatherDisplay:10.37,2013-11-14 04:15:00,
2013-11-13 22:17:00,37.6,11.7,28.79,South,180,6.9,6.9,34,0.00,CLR,,0.01,WeatherDisplay:10.37,2013-11-14 04:17:00,
2013-11-13 22:18:00,37.6,11.7,28.79,SSE,158,6.4,6.4,34,0.00,CLR,,0.01,WeatherDisplay:10.37,2013-11-14 04:18:00,
2013-11-13 22:19:00,37.6,11.7,28.79,SSW,202,6.9,6.9,34,0.00,CLR,,0.01,WeatherDisplay:10.37,2013-11-14 04:19:00,
2013-11-13 22:20:00,37.4,11.5,28.79,SW,225,5.8,5.8,34,0.00,CLR,,0.01,WeatherDisplay:10.37,2013-11-14 04:20:00,
2013-11-13 22:21:00,37.4,11.5,28.79,WSW,248,3.5,3.5,34,0.00,CLR,,0.01,WeatherDisplay:10.37,2013-11-14 04:21:00,
2013-11-13 22:22:00,37.4,11.5,28.79,WSW,248,4.6,4.6,34,0.00,CLR,,0.01,WeatherDisplay:10.37,2013-11-14 04:22:00,
2013-11-13 22:24:00,37.2,12.0,28.79,SSW,202,3.1,3.1,35,0.00,CLR,,0.01,WeatherDisplay:10.37,2013-11-14 04:24:00,
2013-11-13 22:25:00,37.2,12.1,28.79,WSW,245,2.0,5.0,35,0.00,CLR,,0.01,WeatherDisplay:10.37,2013-11-14 04:25:00,
2013-11-13 22:26:00,37.0,11.9,28.79,East,90,8.1,8.1,35,0.00,CLR,,0.01,WeatherDisplay:10.37,2013-11-14 04:26:00,
2013-11-13 22:27:00,37.2,12.0,28.79,SSW,202,8.1,8.1,35,0.00,CLR,,0.01,WeatherDisplay:10.37,2013-11-14 04:27:00,
2013-11-13 22:29:00,37.2,12.0,28.79,WSW,248,3.5,3.5,35,0.00,CLR,,0.01,WeatherDisplay:10.37,2013-11-14 04:29:00,
2013-11-13 22:30:00,37.0,11.9,28.79,WSW,248,3.5,3.5,35,0.00,CLR,,0.01,WeatherDisplay:10.37,2013-11-14 04:30:00,
2013-11-13 22:31:00,37.0,11.9,28.79,SE,135,3.5,3.5,35,0.00,CLR,,0.01,WeatherDisplay:10.37,2013-11-14 04:31:00,
2013-11-13 22:32:00,36.9,11.7,28.79,SSW,202,3.6,3.6,35,0.00,CLR,,0.01,WeatherDisplay:10.37,2013-11-14 04:32:00,
2013-11-13 22:34:00,37.0,11.9,28.79,SSW,202,4.6,4.6,35,0.00,CLR,,0.01,WeatherDisplay:10.37,2013-11-14 04:34:00,
2013-11-13 22:35:00,37.0,11.9,28.79,SSW,202,3.8,3.8,35,0.00,CLR,,0.01,WeatherDisplay:10.37,2013-11-14 04:35:00,
2013-11-13 22:36:00,37.0,11.9,28.79,NNW,338,5.8,5.8,35,0.00,CLR,,0.01,WeatherDisplay:10.37,2013-11-14 04:36:00,
2013-11-13 22:37:00,37.0,11.9,28.79,South,180,5.8,5.8,35,0.00,CLR,,0.01,WeatherDisplay:10.37,2013-11-14 04:37:00,
2013-11-13 22:39:00,37.0,11.9,28.82,SSW,202,4.3,4.3,35,0.00,CLR,,0.01,WeatherDisplay:10.37,2013-11-14 04:39:00,
2013-11-13 22:40:00,37.0,11.9,28.82,SSW,202,4.6,4.6,35,0.00,CLR,,0.01,WeatherDisplay:10.37,2013-11-14 04:40:00,
2013-11-13 22:42:00,36.9,11.7,28.82,SSW,202,3.5,3.5,35,0.00,CLR,,0.01,WeatherDisplay:10.37,2013-11-14 04:42:00,
2013-11-13 22:43:00,37.0,11.9,28.82,WSW,248,4.0,4.3,35,0.00,CLR,,0.01,WeatherDisplay:10.37,2013-11-14 04:43:00,
2013-11-13 22:44:00,37.0,11.9,28.82,WSW,248,8.1,8.1,35,0.00,CLR,,0.01,WeatherDisplay:10.37,2013-11-14 04:44:00,
2013-11-13 22:45:00,37.0,11.9,28.82,West,270,5.8,5.8,35,0.00,CLR,,0.01,WeatherDisplay:10.37,2013-11-14 04:45:00,
2013-11-13 22:47:00,37.0,11.9,28.82,WSW,248,4.6,4.6,35,0.00,CLR,,0.01,WeatherDisplay:10.37,2013-11-14 04:47:00,
2013-11-13 22:48:00,37.0,11.9,28.82,SSW,202,4.6,4.6,35,0.00,CLR,,0.01,WeatherDisplay:10.37,2013-11-14 04:48:00,
2013-11-13 22:49:00,37.0,11.9,28.82,WSW,248,7.4,7.4,35,0.00,CLR,,0.01,WeatherDisplay:10.37,2013-11-14 04:49:00,
2013-11-13 22:50:00,37.0,11.9,28.82,SW,225,6.9,6.9,35,0.00,CLR,,0.01,WeatherDisplay:10.37,2013-11-14 04:50:00,
2013-11-13 22:51:00,37.0,11.9,28.82,WSW,248,3.5,3.5,35,0.00,CLR,,0.01,WeatherDisplay:10.37,2013-11-14 04:51:00,
2013-11-13 22:53:00,37.0,11.9,28.82,West,270,3.5,3.5,35,0.00,CLR,,0.01,WeatherDisplay:10.37,2013-11-14 04:53:00,
2013-11-13 22:54:00,36.9,11.7,28.82,West,270,2.3,2.3,35,0.00,CLR,,0.01,WeatherDisplay:10.37,2013-11-14 04:54:00,
2013-11-13 22:55:00,36.9,11.7,28.79,WSW,248,3.1,3.1,35,0.00,CLR,,0.01,WeatherDisplay:10.37,2013-11-14 04:55:00,
2013-11-13 22:56:00,36.9,11.7,28.79,West,270,4.6,4.6,35,0.00,CLR,,0.01,WeatherDisplay:10.37,2013-11-14 04:56:00,
2013-11-13 22:58:00,36.9,11.7,28.79,SE,135,3.5,3.5,35,0.00,CLR,,0.01,WeatherDisplay:10.37,2013-11-14 04:58:00,
2013-11-13 22:59:00,36.9,11.7,28.79,WSW,248,3.6,3.6,35,0.00,CLR,,0.01,WeatherDisplay:10.37,2013-11-14 04:59:00,
2013-11-13 23:00:00,36.7,11.6,28.79,West,270,3.5,3.5,35,0.00,CLR,,0.01,WeatherDisplay:10.37,2013-11-14 05:00:00,
2013-11-13 23:01:00,36.7,11.6,28.79,SSW,202,2.3,2.3,35,0.00,CLR,,0.01,WeatherDisplay:10.37,2013-11-14 05:01:00,
2013-11-13 23:02:00,36.7,11.6,28.79,East,90,5.8,5.8,35,0.00,CLR,,0.01,WeatherDisplay:10.37,2013-11-14 05:02:00,
2013-11-13 23:06:00,36.9,11.7,28.79,SSW,202,4.6,4.6,35,0.00,CLR,,0.01,WeatherDisplay:10.37,2013-11-14 05:06:00,
2013-11-13 23:07:00,36.9,11.7,28.79,WNW,292,3.5,3.5,35,0.00,CLR,,0.01,WeatherDisplay:10.37,2013-11-14 05:07:00,
2013-11-13 23:11:00,36.7,11.6,28.79,South,180,2.6,2.6,35,0.00,CLR,,0.01,WeatherDisplay:10.37,2013-11-14 05:11:00,
2013-11-13 23:12:00,36.7,12.2,28.79,West,270,2.3,2.4,36,0.00,CLR,,0.01,WeatherDisplay:10.37,2013-11-14 05:12:00,
2013-11-13 23:13:00,36.5,12.0,28.79,SSW,202,4.0,4.0,36,0.00,CLR,,0.01,WeatherDisplay:10.37,2013-11-14 05:13:00,
2013-11-13 23:16:00,36.7,12.2,28.79,West,270,6.9,6.9,36,0.00,CLR,,0.01,WeatherDisplay:10.37,2013-11-14 05:16:00,
2013-11-13 23:17:00,36.7,12.2,28.79,WSW,248,3.5,3.5,36,0.00,CLR,,0.01,WeatherDisplay:10.37,2013-11-14 05:17:00,
2013-11-13 23:18:00,36.5,12.0,28.79,WNW,292,3.5,3.5,36,0.00,CLR,,0.01,WeatherDisplay:10.37,2013-11-14 05:18:00,
2013-11-13 23:21:00,36.3,11.9,28.79,NW,315,4.6,4.6,36,0.00,CLR,,0.01,WeatherDisplay:10.37,2013-11-14 05:21:00,
2013-11-13 23:22:00,36.3,11.9,28.79,SSW,202,4.6,4.6,36,0.00,CLR,,0.01,WeatherDisplay:10.37,2013-11-14 05:22:00,
2013-11-13 23:23:00,36.3,11.9,28.79,East,90,3.6,3.6,36,0.00,CLR,,0.01,WeatherDisplay:10.37,2013-11-14 05:23:00,
2013-11-13 23:26:00,36.5,12.0,28.79,WNW,292,5.8,5.8,36,0.00,CLR,,0.01,WeatherDisplay:10.37,2013-11-14 05:26:00,
2013-11-13 23:27:00,36.5,12.0,28.79,WSW,248,5.8,5.8,36,0.00,CLR,,0.01,WeatherDisplay:10.37,2013-11-14 05:27:00,
2013-11-13 23:28:00,36.7,12.2,28.79,WSW,248,3.8,3.8,36,0.00,CLR,,0.01,WeatherDisplay:10.37,2013-11-14 05:28:00,
2013-11-13 23:29:00,36.7,12.2,28.79,SW,225,5.8,5.8,36,0.00,CLR,,0.01,WeatherDisplay:10.37,2013-11-14 05:29:00,
2013-11-13 23:31:00,36.7,12.2,28.79,West,270,5.8,5.8,36,0.00,CLR,,0.01,WeatherDisplay:10.37,2013-11-14 05:31:00,
2013-11-13 23:32:00,36.7,12.2,28.79,NW,315,5.8,5.8,36,0.00,CLR,,0.01,WeatherDisplay:10.37,2013-11-14 05:32:00,
2013-11-13 23:33:00,36.7,12.2,28.79,SSW,202,6.9,6.9,36,0.00,CLR,,0.01,WeatherDisplay:10.37,2013-11-14 05:33:00,
2013-11-13 23:34:00,36.7,12.2,28.79,SSW,202,3.5,3.5,36,0.00,CLR,,0.01,WeatherDisplay:10.37,2013-11-14 05:34:00,
2013-11-13 23:37:00,36.7,12.2,28.79,South,180,3.5,3.5,36,0.00,CLR,,0.01,WeatherDisplay:10.37,2013-11-14 05:37:00,
2013-11-13 23:38:00,36.7,12.2,28.79,WSW,248,3.5,3.5,36,0.00,CLR,,0.01,WeatherDisplay:10.37,2013-11-14 05:38:00,
2013-11-13 23:39:00,36.5,12.0,28.79,SW,225,3.5,3.5,36,0.00,CLR,,0.01,WeatherDisplay:10.37,2013-11-14 05:39:00,
2013-11-13 23:42:00,36.3,11.9,28.79,SW,225,3.5,3.5,36,0.00,CLR,,0.01,WeatherDisplay:10.37,2013-11-14 05:42:00,
2013-11-13 23:44:00,36.3,11.9,28.79,SSW,202,3.5,3.5,36,0.00,CLR,,0.01,WeatherDisplay:10.37,2013-11-14 05:44:00,
2013-11-13 23:45:00,36.3,11.9,28.79,West,270,3.5,3.5,36,0.00,CLR,,0.01,WeatherDisplay:10.37,2013-11-14 05:45:00,
2013-11-13 23:47:00,36.3,11.9,28.79,WSW,248,4.6,4.6,36,0.00,CLR,,0.01,WeatherDisplay:10.37,2013-11-14 05:47:00,
2013-11-13 23:49:00,36.3,11.9,28.79,SSW,202,3.5,3.5,36,0.00,CLR,,0.01,WeatherDisplay:10.37,2013-11-14 05:49:00,
2013-11-13 23:50:00,36.3,12.5,28.79,South,180,3.5,3.5,37,0.00,CLR,,0.01,WeatherDisplay:10.37,2013-11-14 05:50:00,
2013-11-13 23:52:00,36.3,12.5,28.79,SSW,202,8.1,8.1,37,0.00,CLR,,0.01,WeatherDisplay:10.37,2013-11-14 05:52:00,
2013-11-13 23:54:00,36.3,12.5,28.79,SSW,202,5.6,5.6,37,0.00,CLR,,0.01,WeatherDisplay:10.37,2013-11-14 05:54:00,
2013-11-13 23:55:00,36.3,12.5,28.79,SW,236,3.0,9.0,37,0.00,CLR,,0.01,WeatherDisplay:10.37,2013-11-14 05:55:00,
2013-11-13 23:57:00,36.3,12.5,28.79,WNW,292,3.5,3.5,37,0.00,CLR,,0.01,WeatherDisplay:10.37,2013-11-14 05:57:00,
2013-11-13 23:59:00,36.3,12.5,28.79,SW,225,6.9,6.9,37,0.00,CLR,,0.01,WeatherDisplay:10.37,2013-11-14 05:59:00,